Wetterdaten: Samstag, 08.04.2017
Datum Zeit Temp. A. Feuchte A. Luftdruck Regen Wind Richtung Richtung Sonnenschein ET UV Solar Taupunkt Windchill Windben Empfang
08.04.2017 00:00 8,4 C 86 % 1021,7 hPa 0,0 l/m 14,6 km/h (3 Bft) W-SW 241 0 min 0,000 mm 0,0 UV-I 0 W/m 6,2 C 3,4 C 22,5 km/h (4 Bft) 100,00 %
08.04.2017 00:02 8,4 C 86 % 1021,8 hPa 0,0 l/m 14,0 km/h (3 Bft) W-SW 246 0 min 0,000 mm 0,0 UV-I 0 W/m 6,2 C 3,7 C 17,7 km/h (3 Bft) 11,11 %
08.04.2017 00:04 8,4 C 85 % 1021,7 hPa 0,0 l/m 11,9 km/h (2 Bft) SW 229 0 min 0,000 mm 0,0 UV-I 0 W/m 6,0 C 4,7 C 17,7 km/h (3 Bft) 66,67 %
08.04.2017 00:06 8,5 C 85 % 1021,8 hPa 0,0 l/m 13,5 km/h (3 Bft) W 265 0 min 0,000 mm 0,0 UV-I 0 W/m 6,1 C 4,0 C 20,9 km/h (4 Bft) 95,74 %
08.04.2017 00:08 8,5 C 85 % 1021,8 hPa 0,0 l/m 9,9 km/h (2 Bft) W-SW 238 0 min 0,000 mm 0,0 UV-I 0 W/m 6,1 C 6,0 C 19,3 km/h (3 Bft) 97,73 %
08.04.2017 00:10 8,5 C 85 % 1021,8 hPa 0,0 l/m 12,8 km/h (3 Bft) W 268 0 min 0,000 mm 0,0 UV-I 0 W/m 6,1 C 4,4 C 20,9 km/h (4 Bft) 96,23 %
08.04.2017 00:12 8,6 C 84 % 1021,8 hPa 0,0 l/m 11,6 km/h (2 Bft) W 265 0 min 0,000 mm 0,0 UV-I 0 W/m 6,1 C 5,1 C 16,1 km/h (3 Bft) 97,56 %
08.04.2017 00:14 8,6 C 85 % 1021,8 hPa 0,0 l/m 11,1 km/h (2 Bft) W 276 0 min 0,000 mm 0,0 UV-I 0 W/m 6,2 C 5,4 C 16,1 km/h (3 Bft) 88,10 %
08.04.2017 00:16 8,6 C 84 % 1021,9 hPa 0,0 l/m 10,7 km/h (2 Bft) SW 236 0 min 0,000 mm 0,0 UV-I 0 W/m 6,1 C 5,6 C 14,5 km/h (3 Bft) 96,15 %
08.04.2017 00:18 8,6 C 84 % 1021,9 hPa 0,0 l/m 10,8 km/h (2 Bft) W-SW 257 0 min 0,000 mm 0,0 UV-I 0 W/m 6,1 C 5,6 C 17,7 km/h (3 Bft) 95,83 %
08.04.2017 00:20 8,6 C 84 % 1021,9 hPa 0,0 l/m 11,2 km/h (2 Bft) W 269 0 min 0,000 mm 0,0 UV-I 0 W/m 6,1 C 5,3 C 17,7 km/h (3 Bft) 95,12 %
08.04.2017 00:22 8,6 C 84 % 1021,9 hPa 0,0 l/m 11,7 km/h (2 Bft) W-SW 240 0 min 0,000 mm 0,0 UV-I 0 W/m 6,1 C 5,1 C 16,1 km/h (3 Bft) 94,64 %
08.04.2017 00:24 8,6 C 84 % 1021,9 hPa 0,0 l/m 11,3 km/h (2 Bft) W-SW 248 0 min 0,000 mm 0,0 UV-I 0 W/m 6,1 C 5,3 C 17,7 km/h (3 Bft) 95,35 %
08.04.2017 00:26 8,6 C 84 % 1021,9 hPa 0,0 l/m 11,9 km/h (2 Bft) W 261 0 min 0,000 mm 0,0 UV-I 0 W/m 6,1 C 5,0 C 19,3 km/h (3 Bft) 97,73 %
08.04.2017 00:28 8,6 C 84 % 1022,1 hPa 0,0 l/m 9,3 km/h (2 Bft) W 259 0 min 0,000 mm 0,0 UV-I 0 W/m 6,1 C 6,5 C 16,1 km/h (3 Bft) 96,23 %
08.04.2017 00:30 8,6 C 84 % 1022,0 hPa 0,0 l/m 9,2 km/h (2 Bft) W-SW 250 0 min 0,000 mm 0,0 UV-I 0 W/m 6,1 C 6,6 C 14,5 km/h (3 Bft) 100,00 %
08.04.2017 00:32 8,6 C 84 % 1022,0 hPa 0,0 l/m 9,1 km/h (2 Bft) W-SW 256 0 min 0,000 mm 0,0 UV-I 0 W/m 6,1 C 6,6 C 12,9 km/h (3 Bft) 100,00 %
08.04.2017 00:34 8,6 C 84 % 1022,0 hPa 0,0 l/m 12,2 km/h (2 Bft) W-SW 254 0 min 0,000 mm 0,0 UV-I 0 W/m 6,1 C 4,8 C 17,7 km/h (3 Bft) 94,00 %
08.04.2017 00:36 8,6 C 84 % 1022,0 hPa 0,0 l/m 10,3 km/h (2 Bft) SW 229 0 min 0,000 mm 0,0 UV-I 0 W/m 6,1 C 5,9 C 14,5 km/h (3 Bft) 97,87 %
08.04.2017 00:38 8,6 C 84 % 1022,0 hPa 0,0 l/m 11,8 km/h (2 Bft) S-SW 212 0 min 0,000 mm 0,0 UV-I 0 W/m 6,1 C 5,0 C 19,3 km/h (3 Bft) 100,00 %
08.04.2017 00:40 8,6 C 84 % 1022,0 hPa 0,0 l/m 12,4 km/h (3 Bft) W-SW 253 0 min 0,000 mm 0,0 UV-I 0 W/m 6,1 C 4,7 C 16,1 km/h (3 Bft) 98,00 %
08.04.2017 00:42 8,6 C 83 % 1022,0 hPa 0,0 l/m 14,3 km/h (3 Bft) S-SW 204 0 min 0,000 mm 0,0 UV-I 0 W/m 5,9 C 3,8 C 22,5 km/h (4 Bft) 96,23 %
08.04.2017 00:44 8,6 C 83 % 1022,0 hPa 0,0 l/m 13,7 km/h (3 Bft) W 260 0 min 0,000 mm 0,0 UV-I 0 W/m 5,9 C 4,0 C 17,7 km/h (3 Bft) 100,00 %
08.04.2017 00:46 8,6 C 83 % 1022,1 hPa 0,0 l/m 11,6 km/h (2 Bft) W-SW 256 0 min 0,000 mm 0,0 UV-I 0 W/m 5,9 C 5,1 C 17,7 km/h (3 Bft) 96,23 %
08.04.2017 00:48 8,6 C 83 % 1022,1 hPa 0,0 l/m 11,9 km/h (2 Bft) S-SW 198 0 min 0,000 mm 0,0 UV-I 0 W/m 5,9 C 5,0 C 16,1 km/h (3 Bft) 100,00 %
08.04.2017 00:50 8,6 C 83 % 1022,1 hPa 0,0 l/m 12,8 km/h (3 Bft) W-SW 246 0 min 0,000 mm 0,0 UV-I 0 W/m 5,9 C 4,5 C 19,3 km/h (3 Bft) 98,21 %
08.04.2017 00:52 8,6 C 83 % 1022,1 hPa 0,0 l/m 10,8 km/h (2 Bft) W-SW 238 0 min 0,000 mm 0,0 UV-I 0 W/m 5,9 C 5,6 C 14,5 km/h (3 Bft) 98,00 %
08.04.2017 00:54 8,6 C 83 % 1022,1 hPa 0,0 l/m 9,5 km/h (2 Bft) W-SW 238 0 min 0,000 mm 0,0 UV-I 0 W/m 5,9 C 6,4 C 12,9 km/h (3 Bft) 100,00 %
08.04.2017 00:56 8,6 C 83 % 1022,1 hPa 0,0 l/m 10,7 km/h (2 Bft) W-SW 242 0 min 0,000 mm 0,0 UV-I 0 W/m 5,9 C 5,6 C 14,5 km/h (3 Bft) 97,87 %
08.04.2017 00:58 8,6 C 83 % 1022,1 hPa 0,0 l/m 8,3 km/h (2 Bft) SW 229 0 min 0,000 mm 0,0 UV-I 0 W/m 5,9 C 7,2 C 16,1 km/h (3 Bft) 100,00 %
08.04.2017 01:00 8,6 C 83 % 1022,1 hPa 0,0 l/m 10,2 km/h (2 Bft) W-SW 252 0 min 0,000 mm 0,0 UV-I 0 W/m 5,9 C 5,9 C 14,5 km/h (3 Bft) 98,00 %
08.04.2017 01:02 8,6 C 83 % 1022,1 hPa 0,0 l/m 12,5 km/h (3 Bft) W-SW 252 0 min 0,025 mm 0,0 UV-I 0 W/m 5,9 C 4,6 C 19,3 km/h (3 Bft) 97,73 %
08.04.2017 01:04 8,6 C 83 % 1022,1 hPa 0,0 l/m 10,5 km/h (2 Bft) W-SW 244 0 min 0,000 mm 0,0 UV-I 0 W/m 5,9 C 5,7 C 14,5 km/h (3 Bft) 98,11 %
08.04.2017 01:06 8,6 C 83 % 1022,1 hPa 0,0 l/m 11,3 km/h (2 Bft) SW 234 0 min 0,000 mm 0,0 UV-I 0 W/m 5,9 C 5,3 C 14,5 km/h (3 Bft) 95,12 %
08.04.2017 01:08 8,6 C 83 % 1022,1 hPa 0,0 l/m 12,3 km/h (3 Bft) SW 215 0 min 0,000 mm 0,0 UV-I 0 W/m 5,9 C 4,7 C 17,7 km/h (3 Bft) 97,87 %
08.04.2017 01:10 8,6 C 83 % 1022,1 hPa 0,0 l/m 10,7 km/h (2 Bft) SW 236 0 min 0,000 mm 0,0 UV-I 0 W/m 5,9 C 5,6 C 17,7 km/h (3 Bft) 96,23 %
08.04.2017 01:12 8,6 C 83 % 1022,2 hPa 0,0 l/m 12,6 km/h (3 Bft) W-SW 249 0 min 0,000 mm 0,0 UV-I 0 W/m 5,9 C 4,6 C 16,1 km/h (3 Bft) 92,00 %
08.04.2017 01:14 8,6 C 83 % 1022,2 hPa 0,0 l/m 11,5 km/h (2 Bft) SW 222 0 min 0,000 mm 0,0 UV-I 0 W/m 5,9 C 5,2 C 16,1 km/h (3 Bft) 97,87 %
08.04.2017 01:16 8,6 C 83 % 1022,2 hPa 0,0 l/m 13,1 km/h (3 Bft) W-SW 240 0 min 0,000 mm 0,0 UV-I 0 W/m 5,9 C 4,3 C 16,1 km/h (3 Bft) 92,11 %
08.04.2017 01:18 8,6 C 84 % 1022,2 hPa 0,0 l/m 11,9 km/h (2 Bft) SW 223 0 min 0,000 mm 0,0 UV-I 0 W/m 6,1 C 5,0 C 17,7 km/h (3 Bft) 94,64 %
08.04.2017 01:20 8,6 C 84 % 1022,2 hPa 0,0 l/m 14,3 km/h (3 Bft) W 267 0 min 0,000 mm 0,0 UV-I 0 W/m 6,1 C 3,8 C 20,9 km/h (4 Bft) 97,73 %
08.04.2017 01:22 8,6 C 84 % 1022,2 hPa 0,0 l/m 11,1 km/h (2 Bft) SW 216 0 min 0,000 mm 0,0 UV-I 0 W/m 6,1 C 5,4 C 16,1 km/h (3 Bft) 95,12 %
08.04.2017 01:24 8,6 C 85 % 1022,2 hPa 0,0 l/m 11,1 km/h (2 Bft) W-SW 241 0 min 0,000 mm 0,0 UV-I 0 W/m 6,2 C 5,4 C 16,1 km/h (3 Bft) 94,34 %
08.04.2017 01:26 8,6 C 85 % 1022,2 hPa 0,0 l/m 12,0 km/h (2 Bft) W-SW 252 0 min 0,000 mm 0,0 UV-I 0 W/m 6,2 C 4,9 C 16,1 km/h (3 Bft) 95,12 %
08.04.2017 01:28 8,6 C 85 % 1022,2 hPa 0,0 l/m 10,5 km/h (2 Bft) W 259 0 min 0,000 mm 0,0 UV-I 0 W/m 6,2 C 5,7 C 16,1 km/h (3 Bft) 97,44 %
08.04.2017 01:30 8,6 C 85 % 1022,2 hPa 0,0 l/m 9,9 km/h (2 Bft) S-SW 211 0 min 0,000 mm 0,0 UV-I 0 W/m 6,2 C 6,1 C 14,5 km/h (3 Bft) 96,55 %
08.04.2017 01:32 8,5 C 85 % 1022,2 hPa 0,0 l/m 13,1 km/h (3 Bft) W-SW 243 0 min 0,000 mm 0,0 UV-I 0 W/m 6,1 C 4,2 C 20,9 km/h (4 Bft) 95,45 %
08.04.2017 01:34 8,5 C 86 % 1022,2 hPa 0,0 l/m 11,3 km/h (2 Bft) W-SW 250 0 min 0,000 mm 0,0 UV-I 0 W/m 6,3 C 5,2 C 16,1 km/h (3 Bft) 98,11 %
08.04.2017 01:36 8,5 C 86 % 1022,2 hPa 0,0 l/m 11,9 km/h (2 Bft) SW 230 0 min 0,000 mm 0,0 UV-I 0 W/m 6,3 C 4,8 C 17,7 km/h (3 Bft) 97,44 %
08.04.2017 01:38 8,5 C 86 % 1022,2 hPa 0,0 l/m 12,8 km/h (3 Bft) W-SW 258 0 min 0,000 mm 0,0 UV-I 0 W/m 6,3 C 4,4 C 17,7 km/h (3 Bft) 98,00 %
08.04.2017 01:40 8,5 C 86 % 1022,2 hPa 0,0 l/m 13,2 km/h (3 Bft) SW 228 0 min 0,000 mm 0,0 UV-I 0 W/m 6,3 C 4,2 C 19,3 km/h (3 Bft) 95,45 %
08.04.2017 01:42 8,5 C 86 % 1022,2 hPa 0,0 l/m 11,8 km/h (2 Bft) W-SW 249 0 min 0,000 mm 0,0 UV-I 0 W/m 6,3 C 4,9 C 17,7 km/h (3 Bft) 96,43 %
08.04.2017 01:44 8,5 C 86 % 1022,2 hPa 0,0 l/m 12,1 km/h (2 Bft) W-SW 257 0 min 0,000 mm 0,0 UV-I 0 W/m 6,3 C 4,7 C 17,7 km/h (3 Bft) 92,11 %
08.04.2017 01:46 8,4 C 86 % 1022,2 hPa 0,0 l/m 13,5 km/h (3 Bft) W-SW 240 0 min 0,000 mm 0,0 UV-I 0 W/m 6,2 C 3,9 C 19,3 km/h (3 Bft) 95,74 %
08.04.2017 01:48 8,4 C 86 % 1022,2 hPa 0,0 l/m 13,2 km/h (3 Bft) W 263 0 min 0,000 mm 0,0 UV-I 0 W/m 6,2 C 4,0 C 16,1 km/h (3 Bft) 98,00 %
08.04.2017 01:50 8,4 C 86 % 1022,1 hPa 0,0 l/m 15,6 km/h (3 Bft) W 261 0 min 0,000 mm 0,0 UV-I 0 W/m 6,2 C 2,9 C 20,9 km/h (4 Bft) 94,34 %
08.04.2017 01:52 8,4 C 86 % 1022,1 hPa 0,0 l/m 14,2 km/h (3 Bft) W-SW 252 0 min 0,000 mm 0,0 UV-I 0 W/m 6,2 C 3,6 C 20,9 km/h (4 Bft) 100,00 %
08.04.2017 01:54 8,4 C 86 % 1022,1 hPa 0,0 l/m 14,8 km/h (3 Bft) W-SW 248 0 min 0,000 mm 0,0 UV-I 0 W/m 6,2 C 3,3 C 20,9 km/h (4 Bft) 97,56 %
08.04.2017 01:56 8,4 C 86 % 1022,2 hPa 0,0 l/m 13,0 km/h (3 Bft) W-SW 246 0 min 0,000 mm 0,0 UV-I 0 W/m 6,2 C 4,1 C 19,3 km/h (3 Bft) 100,00 %
08.04.2017 01:58 8,4 C 86 % 1022,2 hPa 0,0 l/m 13,7 km/h (3 Bft) W 259 0 min 0,000 mm 0,0 UV-I 0 W/m 6,2 C 3,8 C 20,9 km/h (4 Bft) 96,00 %
08.04.2017 02:00 8,4 C 86 % 1022,2 hPa 0,0 l/m 15,0 km/h (3 Bft) W-SW 256 0 min 0,026 mm 0,0 UV-I 0 W/m 6,2 C 3,2 C 22,5 km/h (4 Bft) 98,11 %
08.04.2017 02:02 8,4 C 86 % 1022,2 hPa 0,0 l/m 14,4 km/h (3 Bft) SW 232 0 min 0,000 mm 0,0 UV-I 0 W/m 6,2 C 3,5 C 20,9 km/h (4 Bft) 100,00 %
08.04.2017 02:04 8,4 C 86 % 1022,2 hPa 0,0 l/m 15,3 km/h (3 Bft) W-SW 257 0 min 0,000 mm 0,0 UV-I 0 W/m 6,2 C 3,1 C 19,3 km/h (3 Bft) 97,87 %
08.04.2017 02:06 8,4 C 86 % 1022,1 hPa 0,0 l/m 13,9 km/h (3 Bft) W 269 0 min 0,000 mm 0,0 UV-I 0 W/m 6,2 C 3,7 C 19,3 km/h (3 Bft) 97,73 %
08.04.2017 02:08 8,4 C 86 % 1022,2 hPa 0,0 l/m 13,9 km/h (3 Bft) W-SW 244 0 min 0,000 mm 0,0 UV-I 0 W/m 6,2 C 3,7 C 20,9 km/h (4 Bft) 98,11 %
08.04.2017 02:10 8,4 C 86 % 1022,2 hPa 0,0 l/m 13,9 km/h (3 Bft) SW 229 0 min 0,000 mm 0,0 UV-I 0 W/m 6,2 C 3,7 C 17,7 km/h (3 Bft) 97,73 %
08.04.2017 02:12 8,4 C 86 % 1022,2 hPa 0,0 l/m 13,3 km/h (3 Bft) W 273 0 min 0,000 mm 0,0 UV-I 0 W/m 6,2 C 4,0 C 19,3 km/h (3 Bft) 98,11 %
08.04.2017 02:14 8,4 C 86 % 1022,2 hPa 0,0 l/m 15,9 km/h (3 Bft) W 259 0 min 0,000 mm 0,0 UV-I 0 W/m 6,2 C 2,8 C 20,9 km/h (4 Bft) 100,00 %
08.04.2017 02:16 8,4 C 86 % 1022,1 hPa 0,0 l/m 14,5 km/h (3 Bft) W-SW 254 0 min 0,000 mm 0,0 UV-I 0 W/m 6,2 C 3,4 C 20,9 km/h (4 Bft) 97,44 %
08.04.2017 02:18 8,4 C 86 % 1022,1 hPa 0,0 l/m 15,2 km/h (3 Bft) SW 235 0 min 0,000 mm 0,0 UV-I 0 W/m 6,2 C 3,1 C 20,9 km/h (4 Bft) 100,00 %
08.04.2017 02:20 8,4 C 86 % 1022,1 hPa 0,0 l/m 16,2 km/h (3 Bft) W-NW 291 0 min 0,000 mm 0,0 UV-I 0 W/m 6,2 C 2,7 C 20,9 km/h (4 Bft) 98,11 %
08.04.2017 02:22 8,4 C 86 % 1022,2 hPa 0,0 l/m 12,1 km/h (2 Bft) W-SW 256 0 min 0,000 mm 0,0 UV-I 0 W/m 6,2 C 4,6 C 17,7 km/h (3 Bft) 100,00 %
08.04.2017 02:24 8,4 C 86 % 1022,1 hPa 0,0 l/m 13,6 km/h (3 Bft) W 261 0 min 0,000 mm 0,0 UV-I 0 W/m 6,2 C 3,9 C 20,9 km/h (4 Bft) 100,00 %
08.04.2017 02:26 8,4 C 86 % 1022,2 hPa 0,0 l/m 15,3 km/h (3 Bft) W-SW 251 0 min 0,000 mm 0,0 UV-I 0 W/m 6,2 C 3,1 C 22,5 km/h (4 Bft) 100,00 %
08.04.2017 02:28 8,4 C 86 % 1022,2 hPa 0,0 l/m 13,7 km/h (3 Bft) W 267 0 min 0,000 mm 0,0 UV-I 0 W/m 6,2 C 3,8 C 17,7 km/h (3 Bft) 96,00 %
08.04.2017 02:30 8,4 C 86 % 1022,2 hPa 0,0 l/m 13,6 km/h (3 Bft) SW 234 0 min 0,000 mm 0,0 UV-I 0 W/m 6,2 C 3,9 C 17,7 km/h (3 Bft) 100,00 %
08.04.2017 02:32 8,4 C 86 % 1022,2 hPa 0,0 l/m 13,0 km/h (3 Bft) W-SW 250 0 min 0,000 mm 0,0 UV-I 0 W/m 6,2 C 4,1 C 20,9 km/h (4 Bft) 96,55 %
08.04.2017 02:34 8,4 C 86 % 1022,2 hPa 0,0 l/m 14,5 km/h (3 Bft) W-SW 258 0 min 0,000 mm 0,0 UV-I 0 W/m 6,2 C 3,4 C 20,9 km/h (4 Bft) 97,30 %
08.04.2017 02:36 8,4 C 86 % 1022,2 hPa 0,0 l/m 12,7 km/h (3 Bft) W-SW 253 0 min 0,000 mm 0,0 UV-I 0 W/m 6,2 C 4,3 C 20,9 km/h (4 Bft) 100,00 %
08.04.2017 02:38 8,4 C 87 % 1022,2 hPa 0,0 l/m 12,7 km/h (3 Bft) W-SW 242 0 min 0,000 mm 0,0 UV-I 0 W/m 6,4 C 4,3 C 19,3 km/h (3 Bft) 98,00 %
08.04.2017 02:40 8,4 C 87 % 1022,2 hPa 0,0 l/m 14,1 km/h (3 Bft) SW 217 0 min 0,000 mm 0,0 UV-I 0 W/m 6,4 C 3,6 C 22,5 km/h (4 Bft) 100,00 %
08.04.2017 02:42 8,4 C 87 % 1022,2 hPa 0,0 l/m 14,7 km/h (3 Bft) W-SW 255 0 min 0,000 mm 0,0 UV-I 0 W/m 6,4 C 3,3 C 20,9 km/h (4 Bft) 96,23 %
08.04.2017 02:44 8,4 C 87 % 1022,2 hPa 0,0 l/m 14,7 km/h (3 Bft) W-SW 257 0 min 0,000 mm 0,0 UV-I 0 W/m 6,4 C 3,3 C 19,3 km/h (3 Bft) 100,00 %
08.04.2017 02:46 8,4 C 87 % 1022,2 hPa 0,0 l/m 15,1 km/h (3 Bft) W-SW 249 0 min 0,000 mm 0,0 UV-I 0 W/m 6,4 C 3,2 C 24,1 km/h (4 Bft) 97,62 %
08.04.2017 02:48 8,4 C 87 % 1022,2 hPa 0,0 l/m 13,9 km/h (3 Bft) W-SW 243 0 min 0,000 mm 0,0 UV-I 0 W/m 6,4 C 3,7 C 17,7 km/h (3 Bft) 96,36 %
08.04.2017 02:50 8,4 C 87 % 1022,2 hPa 0,0 l/m 14,7 km/h (3 Bft) W-SW 252 0 min 0,000 mm 0,0 UV-I 0 W/m 6,4 C 3,3 C 19,3 km/h (3 Bft) 100,00 %
08.04.2017 02:52 8,4 C 87 % 1022,2 hPa 0,0 l/m 14,6 km/h (3 Bft) W-SW 245 0 min 0,000 mm 0,0 UV-I 0 W/m 6,4 C 3,4 C 20,9 km/h (4 Bft) 97,44 %
08.04.2017 02:54 8,4 C 87 % 1022,2 hPa 0,0 l/m 12,1 km/h (2 Bft) W-SW 238 0 min 0,000 mm 0,0 UV-I 0 W/m 6,4 C 4,6 C 19,3 km/h (3 Bft) 100,00 %
08.04.2017 02:56 8,4 C 87 % 1022,2 hPa 0,0 l/m 13,8 km/h (3 Bft) SW 222 0 min 0,000 mm 0,0 UV-I 0 W/m 6,4 C 3,8 C 19,3 km/h (3 Bft) 98,11 %
08.04.2017 02:58 8,4 C 87 % 1022,2 hPa 0,0 l/m 12,5 km/h (3 Bft) W 274 0 min 0,000 mm 0,0 UV-I 0 W/m 6,4 C 4,4 C 16,1 km/h (3 Bft) 100,00 %
08.04.2017 03:00 8,3 C 87 % 1022,2 hPa 0,0 l/m 11,0 km/h (2 Bft) W-SW 242 0 min 0,000 mm 0,0 UV-I 0 W/m 6,3 C 5,1 C 17,7 km/h (3 Bft) 98,31 %
08.04.2017 03:02 8,3 C 87 % 1022,2 hPa 0,0 l/m 12,4 km/h (3 Bft) W-SW 242 0 min 0,025 mm 0,0 UV-I 0 W/m 6,3 C 4,3 C 16,1 km/h (3 Bft) 97,73 %
08.04.2017 03:04 8,3 C 87 % 1022,2 hPa 0,0 l/m 14,4 km/h (3 Bft) W-SW 244 0 min 0,000 mm 0,0 UV-I 0 W/m 6,3 C 3,4 C 20,9 km/h (4 Bft) 100,00 %
08.04.2017 03:06 8,3 C 88 % 1022,2 hPa 0,0 l/m 13,8 km/h (3 Bft) SW 223 0 min 0,000 mm 0,0 UV-I 0 W/m 6,4 C 3,6 C 20,9 km/h (4 Bft) 97,56 %
08.04.2017 03:08 8,3 C 88 % 1022,2 hPa 0,0 l/m 13,2 km/h (3 Bft) W-SW 250 0 min 0,000 mm 0,0 UV-I 0 W/m 6,4 C 3,9 C 19,3 km/h (3 Bft) 96,23 %
08.04.2017 03:10 8,3 C 88 % 1022,2 hPa 0,0 l/m 11,7 km/h (2 Bft) W-SW 248 0 min 0,000 mm 0,0 UV-I 0 W/m 6,4 C 4,7 C 16,1 km/h (3 Bft) 100,00 %
08.04.2017 03:12 8,3 C 88 % 1022,2 hPa 0,0 l/m 12,7 km/h (3 Bft) W-NW 286 0 min 0,000 mm 0,0 UV-I 0 W/m 6,4 C 4,2 C 19,3 km/h (3 Bft) 98,11 %
08.04.2017 03:14 8,3 C 88 % 1022,2 hPa 0,0 l/m 14,6 km/h (3 Bft) W 260 0 min 0,000 mm 0,0 UV-I 0 W/m 6,4 C 3,3 C 20,9 km/h (4 Bft) 100,00 %
08.04.2017 03:16 8,3 C 88 % 1022,2 hPa 0,0 l/m 12,7 km/h (3 Bft) W-SW 250 0 min 0,000 mm 0,0 UV-I 0 W/m 6,4 C 4,2 C 17,7 km/h (3 Bft) 97,14 %
08.04.2017 03:18 8,3 C 88 % 1022,2 hPa 0,0 l/m 12,4 km/h (3 Bft) W-SW 248 0 min 0,000 mm 0,0 UV-I 0 W/m 6,4 C 4,3 C 17,7 km/h (3 Bft) 98,00 %
08.04.2017 03:20 8,2 C 88 % 1022,2 hPa 0,0 l/m 12,5 km/h (3 Bft) W-SW 254 0 min 0,000 mm 0,0 UV-I 0 W/m 6,3 C 4,2 C 16,1 km/h (3 Bft) 95,45 %
08.04.2017 03:22 8,2 C 88 % 1022,3 hPa 0,0 l/m 9,5 km/h (2 Bft) W-SW 248 0 min 0,000 mm 0,0 UV-I 0 W/m 6,3 C 5,9 C 12,9 km/h (3 Bft) 98,21 %
08.04.2017 03:24 8,2 C 88 % 1022,2 hPa 0,0 l/m 9,0 km/h (2 Bft) W 265 0 min 0,000 mm 0,0 UV-I 0 W/m 6,3 C 6,3 C 14,5 km/h (3 Bft) 97,73 %
08.04.2017 03:26 8,2 C 88 % 1022,2 hPa 0,0 l/m 11,0 km/h (2 Bft) W-SW 250 0 min 0,000 mm 0,0 UV-I 0 W/m 6,3 C 5,0 C 16,1 km/h (3 Bft) 95,12 %
08.04.2017 03:28 8,2 C 88 % 1022,2 hPa 0,0 l/m 13,0 km/h (3 Bft) W-SW 252 0 min 0,000 mm 0,0 UV-I 0 W/m 6,3 C 3,9 C 19,3 km/h (3 Bft) 91,49 %
08.04.2017 03:30 8,2 C 88 % 1022,2 hPa 0,0 l/m 13,7 km/h (3 Bft) W-SW 254 0 min 0,000 mm 0,0 UV-I 0 W/m 6,3 C 3,6 C 19,3 km/h (3 Bft) 98,21 %
08.04.2017 03:32 8,2 C 88 % 1022,2 hPa 0,0 l/m 9,4 km/h (2 Bft) W-SW 257 0 min 0,000 mm 0,0 UV-I 0 W/m 6,3 C 6,0 C 12,9 km/h (3 Bft) 91,67 %
08.04.2017 03:34 8,2 C 88 % 1022,2 hPa 0,0 l/m 10,9 km/h (2 Bft) W 265 0 min 0,000 mm 0,0 UV-I 0 W/m 6,3 C 5,1 C 17,7 km/h (3 Bft) 93,22 %
08.04.2017 03:36 8,2 C 88 % 1022,2 hPa 0,0 l/m 12,2 km/h (2 Bft) W-SW 248 0 min 0,000 mm 0,0 UV-I 0 W/m 6,3 C 4,3 C 19,3 km/h (3 Bft) 92,68 %
08.04.2017 03:38 8,2 C 88 % 1022,2 hPa 0,0 l/m 13,5 km/h (3 Bft) W 259 0 min 0,000 mm 0,0 UV-I 0 W/m 6,3 C 3,7 C 19,3 km/h (3 Bft) 95,45 %
08.04.2017 03:40 8,1 C 88 % 1022,2 hPa 0,0 l/m 14,0 km/h (3 Bft) W-SW 250 0 min 0,000 mm 0,0 UV-I 0 W/m 6,2 C 3,3 C 17,7 km/h (3 Bft) 96,23 %
08.04.2017 03:42 8,1 C 87 % 1022,1 hPa 0,0 l/m 12,8 km/h (3 Bft) W 267 0 min 0,000 mm 0,0 UV-I 0 W/m 6,1 C 3,9 C 16,1 km/h (3 Bft) 94,00 %
08.04.2017 03:44 8,1 C 87 % 1022,1 hPa 0,0 l/m 11,4 km/h (2 Bft) W 263 0 min 0,000 mm 0,0 UV-I 0 W/m 6,1 C 4,7 C 16,1 km/h (3 Bft) 97,14 %
08.04.2017 03:46 8,1 C 87 % 1022,1 hPa 0,0 l/m 12,7 km/h (3 Bft) SW 235 0 min 0,000 mm 0,0 UV-I 0 W/m 6,1 C 4,0 C 17,7 km/h (3 Bft) 96,15 %
08.04.2017 03:48 8,1 C 87 % 1022,1 hPa 0,0 l/m 12,9 km/h (3 Bft) W-SW 238 0 min 0,000 mm 0,0 UV-I 0 W/m 6,1 C 3,8 C 17,7 km/h (3 Bft) 92,96 %
08.04.2017 03:50 8,1 C 87 % 1022,1 hPa 0,0 l/m 11,5 km/h (2 Bft) W-SW 250 0 min 0,000 mm 0,0 UV-I 0 W/m 6,1 C 4,6 C 14,5 km/h (3 Bft) 95,12 %
08.04.2017 03:52 8,1 C 87 % 1022,1 hPa 0,0 l/m 11,2 km/h (2 Bft) W 259 0 min 0,000 mm 0,0 UV-I 0 W/m 6,1 C 4,8 C 16,1 km/h (3 Bft) 96,23 %
08.04.2017 03:54 8,1 C 87 % 1022,1 hPa 0,0 l/m 11,7 km/h (2 Bft) W-SW 239 0 min 0,000 mm 0,0 UV-I 0 W/m 6,1 C 4,5 C 16,1 km/h (3 Bft) 97,56 %
08.04.2017 03:56 8,1 C 87 % 1022,1 hPa 0,0 l/m 9,7 km/h (2 Bft) W 263 0 min 0,000 mm 0,0 UV-I 0 W/m 6,1 C 5,7 C 14,5 km/h (3 Bft) 96,00 %
08.04.2017 03:58 8,1 C 87 % 1022,1 hPa 0,0 l/m 11,7 km/h (2 Bft) SW 229 0 min 0,000 mm 0,0 UV-I 0 W/m 6,1 C 4,5 C 16,1 km/h (3 Bft) 94,34 %
08.04.2017 04:00 8,1 C 87 % 1022,0 hPa 0,0 l/m 11,1 km/h (2 Bft) W-SW 242 0 min 0,026 mm 0,0 UV-I 0 W/m 6,1 C 4,8 C 17,7 km/h (3 Bft) 98,00 %
08.04.2017 04:02 8,1 C 87 % 1022,1 hPa 0,0 l/m 13,7 km/h (3 Bft) W 259 0 min 0,000 mm 0,0 UV-I 0 W/m 6,1 C 3,4 C 17,7 km/h (3 Bft) 100,00 %
08.04.2017 04:04 8,1 C 87 % 1022,1 hPa 0,0 l/m 13,6 km/h (3 Bft) W 259 0 min 0,000 mm 0,0 UV-I 0 W/m 6,1 C 3,5 C 17,7 km/h (3 Bft) 97,14 %
08.04.2017 04:06 8,1 C 87 % 1022,0 hPa 0,0 l/m 13,4 km/h (3 Bft) W-SW 258 0 min 0,000 mm 0,0 UV-I 0 W/m 6,1 C 3,6 C 19,3 km/h (3 Bft) 96,61 %
08.04.2017 04:08 8,1 C 87 % 1022,1 hPa 0,0 l/m 11,6 km/h (2 Bft) W-SW 255 0 min 0,000 mm 0,0 UV-I 0 W/m 6,1 C 4,5 C 16,1 km/h (3 Bft) 95,12 %
08.04.2017 04:10 8,1 C 87 % 1022,1 hPa 0,0 l/m 11,9 km/h (2 Bft) W-SW 252 0 min 0,000 mm 0,0 UV-I 0 W/m 6,1 C 4,4 C 19,3 km/h (3 Bft) 98,11 %
08.04.2017 04:12 8,1 C 87 % 1022,0 hPa 0,0 l/m 11,4 km/h (2 Bft) W-SW 252 0 min 0,000 mm 0,0 UV-I 0 W/m 6,1 C 4,7 C 17,7 km/h (3 Bft) 94,44 %
08.04.2017 04:14 8,1 C 87 % 1022,1 hPa 0,0 l/m 10,7 km/h (2 Bft) W 261 0 min 0,000 mm 0,0 UV-I 0 W/m 6,1 C 5,1 C 19,3 km/h (3 Bft) 96,43 %
08.04.2017 04:16 8,0 C 87 % 1022,1 hPa 0,0 l/m 12,6 km/h (3 Bft) W-SW 258 0 min 0,000 mm 0,0 UV-I 0 W/m 6,0 C 3,9 C 20,9 km/h (4 Bft) 95,45 %
08.04.2017 04:18 8,0 C 87 % 1022,1 hPa 0,0 l/m 10,2 km/h (2 Bft) W 259 0 min 0,000 mm 0,0 UV-I 0 W/m 6,0 C 5,3 C 19,3 km/h (3 Bft) 97,37 %
08.04.2017 04:20 8,0 C 87 % 1022,2 hPa 0,0 l/m 14,3 km/h (3 Bft) W-SW 244 0 min 0,000 mm 0,0 UV-I 0 W/m 6,0 C 3,0 C 19,3 km/h (3 Bft) 95,12 %
08.04.2017 04:22 8,0 C 87 % 1022,1 hPa 0,0 l/m 14,4 km/h (3 Bft) W 259 0 min 0,000 mm 0,0 UV-I 0 W/m 6,0 C 3,0 C 19,3 km/h (3 Bft) 94,34 %
08.04.2017 04:24 8,0 C 86 % 1022,1 hPa 0,0 l/m 12,3 km/h (3 Bft) W 271 0 min 0,000 mm 0,0 UV-I 0 W/m 5,8 C 4,0 C 17,7 km/h (3 Bft) 96,23 %
08.04.2017 04:26 8,0 C 86 % 1022,2 hPa 0,0 l/m 13,1 km/h (3 Bft) W 264 0 min 0,000 mm 0,0 UV-I 0 W/m 5,8 C 3,6 C 19,3 km/h (3 Bft) 95,74 %
08.04.2017 04:28 8,0 C 86 % 1022,1 hPa 0,0 l/m 11,2 km/h (2 Bft) W-SW 250 0 min 0,000 mm 0,0 UV-I 0 W/m 5,8 C 4,7 C 17,7 km/h (3 Bft) 94,34 %
08.04.2017 04:30 8,0 C 87 % 1022,1 hPa 0,0 l/m 11,3 km/h (2 Bft) SW 235 0 min 0,000 mm 0,0 UV-I 0 W/m 6,0 C 4,6 C 16,1 km/h (3 Bft) 97,37 %
08.04.2017 04:32 7,9 C 87 % 1022,2 hPa 0,0 l/m 13,8 km/h (3 Bft) W-SW 251 0 min 0,000 mm 0,0 UV-I 0 W/m 5,9 C 3,2 C 20,9 km/h (4 Bft) 94,00 %
08.04.2017 04:34 7,9 C 87 % 1022,2 hPa 0,0 l/m 13,0 km/h (3 Bft) W 260 0 min 0,000 mm 0,0 UV-I 0 W/m 5,9 C 3,6 C 19,3 km/h (3 Bft) 97,73 %
08.04.2017 04:36 7,9 C 86 % 1022,2 hPa 0,0 l/m 13,2 km/h (3 Bft) W-SW 253 0 min 0,000 mm 0,0 UV-I 0 W/m 5,7 C 3,5 C 19,3 km/h (3 Bft) 98,11 %
08.04.2017 04:38 7,9 C 87 % 1022,2 hPa 0,0 l/m 13,5 km/h (3 Bft) SW 225 0 min 0,000 mm 0,0 UV-I 0 W/m 5,9 C 3,3 C 16,1 km/h (3 Bft) 95,45 %
08.04.2017 04:40 7,9 C 87 % 1022,3 hPa 0,0 l/m 15,2 km/h (3 Bft) W-SW 252 0 min 0,000 mm 0,0 UV-I 0 W/m 5,9 C 2,5 C 22,5 km/h (4 Bft) 100,00 %
08.04.2017 04:42 7,9 C 87 % 1022,3 hPa 0,0 l/m 12,7 km/h (3 Bft) W 261 0 min 0,000 mm 0,0 UV-I 0 W/m 5,9 C 3,7 C 19,3 km/h (3 Bft) 100,00 %
08.04.2017 04:44 7,9 C 87 % 1022,3 hPa 0,0 l/m 12,0 km/h (2 Bft) SW 231 0 min 0,000 mm 0,0 UV-I 0 W/m 5,9 C 4,1 C 19,3 km/h (3 Bft) 100,00 %
08.04.2017 04:46 7,9 C 87 % 1022,3 hPa 0,0 l/m 12,5 km/h (3 Bft) W 269 0 min 0,000 mm 0,0 UV-I 0 W/m 5,9 C 3,8 C 16,1 km/h (3 Bft) 98,11 %
08.04.2017 04:48 7,9 C 87 % 1022,4 hPa 0,0 l/m 14,0 km/h (3 Bft) W 261 0 min 0,000 mm 0,0 UV-I 0 W/m 5,9 C 3,1 C 19,3 km/h (3 Bft) 97,44 %
08.04.2017 04:50 7,9 C 87 % 1022,4 hPa 0,0 l/m 12,7 km/h (3 Bft) SW 236 0 min 0,000 mm 0,0 UV-I 0 W/m 5,9 C 3,7 C 19,3 km/h (3 Bft) 100,00 %
08.04.2017 04:52 7,9 C 87 % 1022,3 hPa 0,0 l/m 13,3 km/h (3 Bft) W-SW 251 0 min 0,000 mm 0,0 UV-I 0 W/m 5,9 C 3,4 C 17,7 km/h (3 Bft) 100,00 %
08.04.2017 04:54 7,9 C 87 % 1022,3 hPa 0,0 l/m 12,7 km/h (3 Bft) W-SW 241 0 min 0,000 mm 0,0 UV-I 0 W/m 5,9 C 3,7 C 17,7 km/h (3 Bft) 100,00 %
08.04.2017 04:56 7,9 C 87 % 1022,4 hPa 0,0 l/m 12,3 km/h (3 Bft) SW 233 0 min 0,000 mm 0,0 UV-I 0 W/m 5,9 C 3,9 C 17,7 km/h (3 Bft) 97,44 %
08.04.2017 04:58 7,9 C 87 % 1022,3 hPa 0,0 l/m 11,2 km/h (2 Bft) W 263 0 min 0,000 mm 0,0 UV-I 0 W/m 5,9 C 4,5 C 19,3 km/h (3 Bft) 100,00 %
08.04.2017 05:00 7,9 C 86 % 1022,3 hPa 0,0 l/m 12,2 km/h (2 Bft) W-SW 252 0 min 0,025 mm 0,0 UV-I 0 W/m 5,7 C 4,0 C 16,1 km/h (3 Bft) 98,11 %
08.04.2017 05:02 7,9 C 87 % 1022,3 hPa 0,0 l/m 11,2 km/h (2 Bft) W-SW 248 0 min 0,000 mm 0,0 UV-I 0 W/m 5,9 C 4,5 C 16,1 km/h (3 Bft) 100,00 %
08.04.2017 05:04 7,9 C 86 % 1022,2 hPa 0,0 l/m 10,2 km/h (2 Bft) W-SW 242 0 min 0,000 mm 0,0 UV-I 0 W/m 5,7 C 5,1 C 17,7 km/h (3 Bft) 98,00 %
08.04.2017 05:06 7,9 C 86 % 1022,3 hPa 0,0 l/m 11,3 km/h (2 Bft) SW 232 0 min 0,000 mm 0,0 UV-I 0 W/m 5,7 C 4,5 C 17,7 km/h (3 Bft) 100,00 %
08.04.2017 05:08 7,9 C 86 % 1022,3 hPa 0,0 l/m 12,2 km/h (2 Bft) W-SW 242 0 min 0,000 mm 0,0 UV-I 0 W/m 5,7 C 4,0 C 19,3 km/h (3 Bft) 98,00 %
08.04.2017 05:10 7,9 C 86 % 1022,3 hPa 0,0 l/m 11,7 km/h (2 Bft) W-SW 239 0 min 0,000 mm 0,0 UV-I 0 W/m 5,7 C 4,3 C 17,7 km/h (3 Bft) 98,00 %
08.04.2017 05:12 7,9 C 86 % 1022,3 hPa 0,0 l/m 11,6 km/h (2 Bft) W-SW 244 0 min 0,000 mm 0,0 UV-I 0 W/m 5,7 C 4,3 C 14,5 km/h (3 Bft) 100,00 %
08.04.2017 05:14 7,9 C 86 % 1022,3 hPa 0,0 l/m 11,9 km/h (2 Bft) W 260 0 min 0,000 mm 0,0 UV-I 0 W/m 5,7 C 4,2 C 16,1 km/h (3 Bft) 98,11 %
08.04.2017 05:16 7,9 C 86 % 1022,4 hPa 0,0 l/m 10,8 km/h (2 Bft) W-SW 253 0 min 0,000 mm 0,0 UV-I 0 W/m 5,7 C 4,8 C 16,1 km/h (3 Bft) 97,37 %
08.04.2017 05:18 7,9 C 86 % 1022,4 hPa 0,0 l/m 10,7 km/h (2 Bft) SW 228 0 min 0,000 mm 0,0 UV-I 0 W/m 5,7 C 4,8 C 14,5 km/h (3 Bft) 96,23 %
08.04.2017 05:20 7,9 C 86 % 1022,4 hPa 0,0 l/m 9,2 km/h (2 Bft) W-SW 253 0 min 0,000 mm 0,0 UV-I 0 W/m 5,7 C 5,8 C 14,5 km/h (3 Bft) 100,00 %
08.04.2017 05:22 7,9 C 86 % 1022,4 hPa 0,0 l/m 9,8 km/h (2 Bft) W-SW 244 0 min 0,000 mm 0,0 UV-I 0 W/m 5,7 C 5,4 C 17,7 km/h (3 Bft) 100,00 %
08.04.2017 05:24 7,9 C 86 % 1022,4 hPa 0,0 l/m 11,2 km/h (2 Bft) SW 234 0 min 0,000 mm 0,0 UV-I 0 W/m 5,7 C 4,5 C 16,1 km/h (3 Bft) 97,87 %
08.04.2017 05:26 7,9 C 87 % 1022,4 hPa 0,0 l/m 9,8 km/h (2 Bft) W-SW 248 0 min 0,000 mm 0,0 UV-I 0 W/m 5,9 C 5,4 C 16,1 km/h (3 Bft) 97,87 %
08.04.2017 05:28 7,9 C 86 % 1022,5 hPa 0,0 l/m 11,6 km/h (2 Bft) SW 229 0 min 0,000 mm 0,0 UV-I 0 W/m 5,7 C 4,3 C 17,7 km/h (3 Bft) 95,83 %
08.04.2017 05:30 7,9 C 86 % 1022,5 hPa 0,0 l/m 10,8 km/h (2 Bft) W-SW 257 0 min 0,000 mm 0,0 UV-I 0 W/m 5,7 C 4,8 C 16,1 km/h (3 Bft) 96,15 %
08.04.2017 05:32 7,9 C 87 % 1022,4 hPa 0,0 l/m 9,4 km/h (2 Bft) W 271 0 min 0,000 mm 0,0 UV-I 0 W/m 5,9 C 5,7 C 14,5 km/h (3 Bft) 97,62 %
08.04.2017 05:34 7,9 C 87 % 1022,5 hPa 0,0 l/m 9,7 km/h (2 Bft) W-SW 250 0 min 0,000 mm 0,0 UV-I 0 W/m 5,9 C 5,5 C 12,9 km/h (3 Bft) 94,34 %
08.04.2017 05:36 7,9 C 87 % 1022,5 hPa 0,0 l/m 12,8 km/h (3 Bft) W-SW 254 0 min 0,000 mm 0,0 UV-I 0 W/m 5,9 C 3,7 C 19,3 km/h (3 Bft) 97,56 %
08.04.2017 05:38 7,9 C 87 % 1022,5 hPa 0,0 l/m 9,1 km/h (2 Bft) W 278 0 min 0,000 mm 0,0 UV-I 0 W/m 5,9 C 5,9 C 14,5 km/h (3 Bft) 96,43 %
08.04.2017 05:40 7,9 C 87 % 1022,5 hPa 0,0 l/m 11,0 km/h (2 Bft) SW 225 0 min 0,000 mm 0,0 UV-I 0 W/m 5,9 C 4,7 C 14,5 km/h (3 Bft) 92,11 %
08.04.2017 05:42 7,9 C 87 % 1022,5 hPa 0,0 l/m 10,3 km/h (2 Bft) W-SW 257 0 min 0,000 mm 0,0 UV-I 0 W/m 5,9 C 5,1 C 17,7 km/h (3 Bft) 96,00 %
08.04.2017 05:44 7,9 C 87 % 1022,6 hPa 0,0 l/m 9,6 km/h (2 Bft) W-SW 255 0 min 0,000 mm 0,0 UV-I 0 W/m 5,9 C 5,5 C 14,5 km/h (3 Bft) 95,12 %
08.04.2017 05:46 7,9 C 87 % 1022,6 hPa 0,0 l/m 7,5 km/h (2 Bft) W-SW 246 0 min 0,000 mm 0,0 UV-I 0 W/m 5,9 C 7,0 C 14,5 km/h (3 Bft) 96,23 %
08.04.2017 05:48 7,9 C 87 % 1022,6 hPa 0,0 l/m 13,1 km/h (3 Bft) W-SW 253 0 min 0,000 mm 0,0 UV-I 0 W/m 5,9 C 3,5 C 17,7 km/h (3 Bft) 95,45 %
08.04.2017 05:50 7,9 C 87 % 1022,6 hPa 0,0 l/m 12,6 km/h (3 Bft) W 271 0 min 0,000 mm 0,0 UV-I 0 W/m 5,9 C 3,8 C 16,1 km/h (3 Bft) 98,00 %
08.04.2017 05:52 7,9 C 87 % 1022,7 hPa 0,0 l/m 12,6 km/h (3 Bft) W-SW 242 0 min 0,000 mm 0,0 UV-I 0 W/m 5,9 C 3,8 C 17,7 km/h (3 Bft) 95,12 %
08.04.2017 05:54 7,9 C 87 % 1022,7 hPa 0,0 l/m 11,2 km/h (2 Bft) W-SW 258 0 min 0,000 mm 0,0 UV-I 0 W/m 5,9 C 4,5 C 16,1 km/h (3 Bft) 98,00 %
08.04.2017 05:56 7,9 C 87 % 1022,7 hPa 0,0 l/m 7,8 km/h (2 Bft) W-SW 251 0 min 0,000 mm 0,0 UV-I 0 W/m 5,9 C 6,8 C 12,9 km/h (3 Bft) 97,56 %
08.04.2017 05:58 7,9 C 87 % 1022,7 hPa 0,0 l/m 10,4 km/h (2 Bft) W 281 0 min 0,000 mm 0,0 UV-I 0 W/m 5,9 C 5,0 C 17,7 km/h (3 Bft) 98,31 %
08.04.2017 06:00 7,9 C 87 % 1022,7 hPa 0,0 l/m 10,7 km/h (2 Bft) W-SW 253 0 min 0,025 mm 0,0 UV-I 0 W/m 5,9 C 4,8 C 16,1 km/h (3 Bft) 97,56 %
08.04.2017 06:02 7,9 C 87 % 1022,7 hPa 0,0 l/m 11,6 km/h (2 Bft) W-SW 242 0 min 0,000 mm 0,0 UV-I 0 W/m 5,9 C 4,3 C 16,1 km/h (3 Bft) 96,23 %
08.04.2017 06:04 7,9 C 87 % 1022,7 hPa 0,0 l/m 10,6 km/h (2 Bft) W 262 0 min 0,000 mm 0,0 UV-I 0 W/m 5,9 C 4,9 C 16,1 km/h (3 Bft) 100,00 %
08.04.2017 06:06 7,9 C 87 % 1022,7 hPa 0,0 l/m 11,5 km/h (2 Bft) W-SW 253 0 min 0,000 mm 0,0 UV-I 0 W/m 5,9 C 4,4 C 17,7 km/h (3 Bft) 95,12 %
08.04.2017 06:08 7,9 C 87 % 1022,7 hPa 0,0 l/m 9,2 km/h (2 Bft) W-SW 241 0 min 0,000 mm 0,0 UV-I 0 W/m 5,9 C 5,8 C 14,5 km/h (3 Bft) 96,30 %
08.04.2017 06:10 7,9 C 87 % 1022,8 hPa 0,0 l/m 12,0 km/h (2 Bft) W-SW 242 0 min 0,000 mm 0,0 UV-I 0 W/m 5,9 C 4,1 C 17,7 km/h (3 Bft) 97,73 %
08.04.2017 06:12 7,9 C 87 % 1022,8 hPa 0,0 l/m 12,0 km/h (2 Bft) W-SW 257 0 min 0,000 mm 0,0 UV-I 0 W/m 5,9 C 4,1 C 17,7 km/h (3 Bft) 96,15 %
08.04.2017 06:14 7,9 C 87 % 1022,8 hPa 0,0 l/m 12,7 km/h (3 Bft) W 263 0 min 0,000 mm 0,0 UV-I 0 W/m 5,9 C 3,7 C 17,7 km/h (3 Bft) 100,00 %
08.04.2017 06:16 7,9 C 87 % 1022,8 hPa 0,0 l/m 12,1 km/h (2 Bft) W-SW 244 0 min 0,000 mm 0,0 UV-I 0 W/m 5,9 C 4,0 C 17,7 km/h (3 Bft) 98,00 %
08.04.2017 06:18 7,9 C 87 % 1022,9 hPa 0,0 l/m 8,9 km/h (2 Bft) W 259 0 min 0,000 mm 0,0 UV-I 0 W/m 5,9 C 6,0 C 12,9 km/h (3 Bft) 100,00 %
08.04.2017 06:20 7,9 C 87 % 1022,9 hPa 0,0 l/m 9,2 km/h (2 Bft) W-SW 252 0 min 0,000 mm 0,0 UV-I 0 W/m 5,9 C 5,8 C 14,5 km/h (3 Bft) 97,73 %
08.04.2017 06:22 7,9 C 87 % 1022,8 hPa 0,0 l/m 10,3 km/h (2 Bft) W-SW 246 0 min 0,000 mm 0,0 UV-I 0 W/m 5,9 C 5,1 C 16,1 km/h (3 Bft) 100,00 %
08.04.2017 06:24 7,9 C 87 % 1022,8 hPa 0,0 l/m 8,4 km/h (2 Bft) W-SW 246 0 min 0,000 mm 0,0 UV-I 0 W/m 5,9 C 6,4 C 14,5 km/h (3 Bft) 98,00 %
08.04.2017 06:26 8,0 C 87 % 1022,8 hPa 0,0 l/m 11,4 km/h (2 Bft) W-SW 244 0 min 0,000 mm 0,0 UV-I 0 W/m 6,0 C 4,5 C 16,1 km/h (3 Bft) 98,00 %
08.04.2017 06:28 8,0 C 87 % 1022,9 hPa 0,0 l/m 10,7 km/h (2 Bft) W-SW 242 0 min 0,000 mm 0,0 UV-I 2 W/m 6,0 C 5,0 C 16,1 km/h (3 Bft) 100,00 %
08.04.2017 06:30 7,9 C 86 % 1023,0 hPa 0,0 l/m 10,8 km/h (2 Bft) W 263 0 min 0,000 mm 0,0 UV-I 3 W/m 5,7 C 4,8 C 17,7 km/h (3 Bft) 98,00 %
08.04.2017 06:32 8,0 C 86 % 1023,0 hPa 0,0 l/m 8,7 km/h (2 Bft) W-SW 250 0 min 0,000 mm 0,0 UV-I 5 W/m 5,8 C 6,2 C 12,9 km/h (3 Bft) 96,23 %
08.04.2017 06:34 8,0 C 86 % 1023,0 hPa 0,0 l/m 9,3 km/h (2 Bft) W-SW 238 0 min 0,000 mm 0,0 UV-I 5 W/m 5,8 C 5,8 C 12,9 km/h (3 Bft) 97,56 %
08.04.2017 06:36 8,0 C 86 % 1023,0 hPa 0,0 l/m 8,7 km/h (2 Bft) W 264 0 min 0,000 mm 0,0 UV-I 0 W/m 5,8 C 6,2 C 12,9 km/h (3 Bft) 100,00 %
08.04.2017 06:38 8,0 C 86 % 1023,0 hPa 0,0 l/m 6,4 km/h (2 Bft) SW 225 0 min 0,000 mm 0,0 UV-I 0 W/m 5,8 C 8,0 C 9,7 km/h (2 Bft) 98,00 %
08.04.2017 06:40 7,9 C 86 % 1023,0 hPa 0,0 l/m 7,9 km/h (2 Bft) W-SW 238 0 min 0,000 mm 0,0 UV-I 2 W/m 5,7 C 6,7 C 12,9 km/h (3 Bft) 98,00 %
08.04.2017 06:42 7,9 C 86 % 1023,1 hPa 0,0 l/m 7,2 km/h (2 Bft) W-SW 237 0 min 0,000 mm 0,0 UV-I 5 W/m 5,7 C 7,3 C 11,3 km/h (2 Bft) 100,00 %
08.04.2017 06:44 7,9 C 86 % 1023,1 hPa 0,0 l/m 8,4 km/h (2 Bft) W-SW 238 0 min 0,000 mm 0,0 UV-I 5 W/m 5,7 C 6,4 C 11,3 km/h (2 Bft) 100,00 %
08.04.2017 06:46 7,9 C 87 % 1023,1 hPa 0,0 l/m 6,0 km/h (2 Bft) SW 234 0 min 0,000 mm 0,0 UV-I 5 W/m 5,9 C 7,9 C 9,7 km/h (2 Bft) 97,37 %
08.04.2017 06:48 7,9 C 87 % 1023,1 hPa 0,0 l/m 8,8 km/h (2 Bft) SW 227 0 min 0,000 mm 0,0 UV-I 5 W/m 5,9 C 6,1 C 14,5 km/h (3 Bft) 98,00 %
08.04.2017 06:50 7,9 C 87 % 1023,2 hPa 0,0 l/m 8,4 km/h (2 Bft) W-SW 254 0 min 0,000 mm 0,0 UV-I 5 W/m 5,9 C 6,4 C 12,9 km/h (3 Bft) 97,62 %
08.04.2017 06:52 7,9 C 87 % 1023,2 hPa 0,0 l/m 7,7 km/h (2 Bft) W-SW 254 0 min 0,000 mm 0,0 UV-I 5 W/m 5,9 C 6,9 C 12,9 km/h (3 Bft) 98,11 %
08.04.2017 06:54 7,9 C 87 % 1023,3 hPa 0,0 l/m 7,2 km/h (2 Bft) SW 217 0 min 0,000 mm 0,0 UV-I 5 W/m 5,9 C 7,3 C 11,3 km/h (2 Bft) 100,00 %
08.04.2017 06:56 7,9 C 87 % 1023,3 hPa 0,0 l/m 8,7 km/h (2 Bft) SW 226 0 min 0,000 mm 0,0 UV-I 7 W/m 5,9 C 6,1 C 12,9 km/h (3 Bft) 97,87 %
08.04.2017 06:58 7,9 C 87 % 1023,3 hPa 0,0 l/m 8,2 km/h (2 Bft) SW 216 0 min 0,000 mm 0,0 UV-I 7 W/m 5,9 C 6,5 C 12,9 km/h (3 Bft) 100,00 %
08.04.2017 07:00 7,9 C 87 % 1023,3 hPa 0,0 l/m 8,4 km/h (2 Bft) W-SW 239 0 min 0,026 mm 0,0 UV-I 7 W/m 5,9 C 6,4 C 14,5 km/h (3 Bft) 98,11 %
08.04.2017 07:02 7,9 C 87 % 1023,3 hPa 0,0 l/m 8,8 km/h (2 Bft) W 264 0 min 0,000 mm 0,0 UV-I 7 W/m 5,9 C 6,1 C 14,5 km/h (3 Bft) 100,00 %
08.04.2017 07:04 7,9 C 87 % 1023,3 hPa 0,0 l/m 9,2 km/h (2 Bft) W-SW 246 0 min 0,000 mm 0,0 UV-I 9 W/m 5,9 C 5,8 C 14,5 km/h (3 Bft) 98,59 %
08.04.2017 07:06 7,9 C 87 % 1023,3 hPa 0,0 l/m 7,8 km/h (2 Bft) W 267 0 min 0,000 mm 0,0 UV-I 9 W/m 5,9 C 6,8 C 11,3 km/h (2 Bft) 95,12 %
08.04.2017 07:08 7,9 C 87 % 1023,4 hPa 0,0 l/m 8,6 km/h (2 Bft) W-SW 248 0 min 0,000 mm 0,0 UV-I 9 W/m 5,9 C 6,2 C 12,9 km/h (3 Bft) 91,49 %
08.04.2017 07:10 7,9 C 87 % 1023,4 hPa 0,0 l/m 10,6 km/h (2 Bft) W-SW 244 0 min 0,000 mm 0,0 UV-I 10 W/m 5,9 C 4,9 C 14,5 km/h (3 Bft) 98,00 %
08.04.2017 07:12 7,9 C 87 % 1023,4 hPa 0,0 l/m 7,4 km/h (2 Bft) W-SW 248 0 min 0,000 mm 0,0 UV-I 11 W/m 5,9 C 7,1 C 12,9 km/h (3 Bft) 100,00 %
08.04.2017 07:14 7,9 C 87 % 1023,5 hPa 0,0 l/m 9,1 km/h (2 Bft) W-SW 237 0 min 0,000 mm 0,0 UV-I 11 W/m 5,9 C 5,9 C 14,5 km/h (3 Bft) 100,00 %
08.04.2017 07:16 7,9 C 87 % 1023,5 hPa 0,0 l/m 10,0 km/h (2 Bft) W-SW 250 0 min 0,000 mm 0,0 UV-I 11 W/m 5,9 C 5,3 C 17,7 km/h (3 Bft) 97,87 %
08.04.2017 07:18 7,9 C 87 % 1023,4 hPa 0,0 l/m 8,0 km/h (2 Bft) SW 233 0 min 0,000 mm 0,0 UV-I 12 W/m 5,9 C 6,6 C 11,3 km/h (2 Bft) 98,21 %
08.04.2017 07:20 7,9 C 87 % 1023,5 hPa 0,0 l/m 8,6 km/h (2 Bft) W-SW 240 0 min 0,000 mm 0,0 UV-I 12 W/m 5,9 C 6,2 C 12,9 km/h (3 Bft) 100,00 %
08.04.2017 07:22 7,9 C 87 % 1023,5 hPa 0,0 l/m 9,3 km/h (2 Bft) W-SW 244 0 min 0,000 mm 0,0 UV-I 12 W/m 5,9 C 5,7 C 12,9 km/h (3 Bft) 100,00 %
08.04.2017 07:24 7,9 C 87 % 1023,5 hPa 0,0 l/m 9,6 km/h (2 Bft) SW 224 0 min 0,000 mm 0,0 UV-I 12 W/m 5,9 C 5,5 C 12,9 km/h (3 Bft) 96,23 %
08.04.2017 07:26 7,9 C 87 % 1023,5 hPa 0,0 l/m 8,1 km/h (2 Bft) W-SW 244 0 min 0,000 mm 0,0 UV-I 12 W/m 5,9 C 6,6 C 11,3 km/h (2 Bft) 100,00 %
08.04.2017 07:28 7,9 C 87 % 1023,5 hPa 0,0 l/m 6,9 km/h (2 Bft) W-SW 254 0 min 0,000 mm 0,0 UV-I 12 W/m 5,9 C 7,5 C 11,3 km/h (2 Bft) 97,92 %
08.04.2017 07:30 7,9 C 87 % 1023,6 hPa 0,0 l/m 5,4 km/h (1 Bft) W-SW 238 0 min 0,000 mm 0,0 UV-I 12 W/m 5,9 C 7,9 C 8,0 km/h (2 Bft) 96,36 %
08.04.2017 07:32 7,9 C 87 % 1023,7 hPa 0,0 l/m 5,2 km/h (1 Bft) SW 226 0 min 0,000 mm 0,0 UV-I 14 W/m 5,9 C 7,9 C 9,7 km/h (2 Bft) 97,73 %
08.04.2017 07:34 7,9 C 87 % 1023,6 hPa 0,0 l/m 6,9 km/h (2 Bft) W-SW 237 0 min 0,000 mm 0,0 UV-I 14 W/m 5,9 C 7,5 C 9,7 km/h (2 Bft) 95,24 %
08.04.2017 07:36 7,9 C 87 % 1023,6 hPa 0,0 l/m 5,9 km/h (2 Bft) W-SW 252 0 min 0,000 mm 0,0 UV-I 14 W/m 5,9 C 7,9 C 11,3 km/h (2 Bft) 96,00 %
08.04.2017 07:38 7,9 C 87 % 1023,6 hPa 0,0 l/m 7,6 km/h (2 Bft) SW 225 0 min 0,000 mm 0,0 UV-I 16 W/m 5,9 C 7,0 C 11,3 km/h (2 Bft) 95,12 %
08.04.2017 07:40 7,9 C 87 % 1023,7 hPa 0,0 l/m 8,0 km/h (2 Bft) SW 230 0 min 0,000 mm 0,0 UV-I 16 W/m 5,9 C 6,6 C 11,3 km/h (2 Bft) 94,00 %
08.04.2017 07:42 7,9 C 87 % 1023,7 hPa 0,0 l/m 7,0 km/h (2 Bft) W-SW 251 0 min 0,000 mm 0,0 UV-I 16 W/m 5,9 C 7,4 C 9,7 km/h (2 Bft) 92,45 %
08.04.2017 07:44 7,9 C 87 % 1023,7 hPa 0,0 l/m 7,5 km/h (2 Bft) SW 222 0 min 0,000 mm 0,0 UV-I 18 W/m 5,9 C 7,0 C 11,3 km/h (2 Bft) 95,12 %
08.04.2017 07:46 8,0 C 87 % 1023,7 hPa 0,0 l/m 8,3 km/h (2 Bft) SW 229 0 min 0,000 mm 0,0 UV-I 19 W/m 6,0 C 6,5 C 12,9 km/h (3 Bft) 94,00 %
08.04.2017 07:48 7,9 C 87 % 1023,7 hPa 0,0 l/m 8,4 km/h (2 Bft) SW 224 0 min 0,000 mm 0,0 UV-I 19 W/m 5,9 C 6,4 C 11,3 km/h (2 Bft) 94,00 %
08.04.2017 07:50 7,9 C 87 % 1023,8 hPa 0,0 l/m 8,4 km/h (2 Bft) W-SW 249 0 min 0,000 mm 0,0 UV-I 21 W/m 5,9 C 6,4 C 9,7 km/h (2 Bft) 92,31 %
08.04.2017 07:52 7,9 C 87 % 1023,8 hPa 0,0 l/m 9,5 km/h (2 Bft) SW 217 0 min 0,000 mm 0,0 UV-I 21 W/m 5,9 C 5,6 C 12,9 km/h (3 Bft) 95,16 %
08.04.2017 07:54 8,0 C 87 % 1023,8 hPa 0,0 l/m 8,0 km/h (2 Bft) W-SW 239 0 min 0,000 mm 0,0 UV-I 21 W/m 6,0 C 6,8 C 11,3 km/h (2 Bft) 95,45 %
08.04.2017 07:56 8,0 C 87 % 1023,7 hPa 0,0 l/m 8,7 km/h (2 Bft) SW 223 0 min 0,000 mm 0,0 UV-I 23 W/m 6,0 C 6,2 C 14,5 km/h (3 Bft) 93,62 %
08.04.2017 07:58 8,0 C 87 % 1023,8 hPa 0,0 l/m 9,9 km/h (2 Bft) W-SW 242 0 min 0,000 mm 0,0 UV-I 25 W/m 6,0 C 5,4 C 16,1 km/h (3 Bft) 92,68 %
08.04.2017 08:00 8,0 C 87 % 1023,7 hPa 0,0 l/m 10,8 km/h (2 Bft) SW 229 0 min 0,000 mm 0,0 UV-I 26 W/m 6,0 C 4,9 C 16,1 km/h (3 Bft) 93,22 %
08.04.2017 08:02 8,0 C 87 % 1023,8 hPa 0,0 l/m 9,7 km/h (2 Bft) SW 229 0 min 0,025 mm 0,0 UV-I 28 W/m 6,0 C 5,6 C 16,1 km/h (3 Bft) 95,45 %
08.04.2017 08:04 8,1 C 87 % 1023,8 hPa 0,0 l/m 8,8 km/h (2 Bft) W-SW 251 0 min 0,000 mm 0,0 UV-I 30 W/m 6,1 C 6,3 C 11,3 km/h (2 Bft) 92,68 %
08.04.2017 08:06 8,1 C 87 % 1023,8 hPa 0,0 l/m 10,2 km/h (2 Bft) W-SW 243 0 min 0,000 mm 0,0 UV-I 32 W/m 6,1 C 5,4 C 16,1 km/h (3 Bft) 94,00 %
08.04.2017 08:08 8,1 C 87 % 1023,8 hPa 0,0 l/m 8,6 km/h (2 Bft) W-SW 253 0 min 0,000 mm 0,0 UV-I 34 W/m 6,1 C 6,4 C 14,5 km/h (3 Bft) 95,24 %
08.04.2017 08:10 8,1 C 87 % 1023,8 hPa 0,0 l/m 9,1 km/h (2 Bft) W-SW 251 0 min 0,000 mm 0,0 UV-I 35 W/m 6,1 C 6,1 C 12,9 km/h (3 Bft) 98,11 %
08.04.2017 08:12 8,1 C 87 % 1023,8 hPa 0,0 l/m 10,7 km/h (2 Bft) SW 229 0 min 0,000 mm 0,0 UV-I 33 W/m 6,1 C 5,1 C 14,5 km/h (3 Bft) 96,00 %
08.04.2017 08:14 8,1 C 87 % 1023,8 hPa 0,0 l/m 11,5 km/h (2 Bft) SW 236 0 min 0,000 mm 0,0 UV-I 33 W/m 6,1 C 4,6 C 19,3 km/h (3 Bft) 97,56 %
08.04.2017 08:16 8,1 C 87 % 1023,8 hPa 0,0 l/m 9,4 km/h (2 Bft) W-SW 238 0 min 0,000 mm 0,0 UV-I 34 W/m 6,1 C 5,9 C 14,5 km/h (3 Bft) 94,34 %
08.04.2017 08:18 8,1 C 87 % 1023,9 hPa 0,0 l/m 10,0 km/h (2 Bft) SW 232 0 min 0,000 mm 0,0 UV-I 37 W/m 6,1 C 5,5 C 16,1 km/h (3 Bft) 100,00 %
08.04.2017 08:20 8,1 C 87 % 1023,9 hPa 0,0 l/m 9,0 km/h (2 Bft) SW 232 0 min 0,000 mm 0,0 UV-I 42 W/m 6,1 C 6,1 C 16,1 km/h (3 Bft) 93,85 %
08.04.2017 08:22 8,1 C 88 % 1023,9 hPa 0,0 l/m 9,3 km/h (2 Bft) W-SW 252 0 min 0,000 mm 0,0 UV-I 46 W/m 6,2 C 5,9 C 16,1 km/h (3 Bft) 94,74 %
08.04.2017 08:24 8,1 C 88 % 1023,8 hPa 0,0 l/m 11,2 km/h (2 Bft) SW 220 0 min 0,000 mm 0,0 UV-I 46 W/m 6,2 C 4,8 C 16,1 km/h (3 Bft) 96,00 %
08.04.2017 08:26 8,1 C 88 % 1023,9 hPa 0,0 l/m 9,5 km/h (2 Bft) W-SW 245 0 min 0,000 mm 0,0 UV-I 47 W/m 6,2 C 5,8 C 14,5 km/h (3 Bft) 96,23 %
08.04.2017 08:28 8,1 C 88 % 1023,9 hPa 0,0 l/m 8,7 km/h (2 Bft) W 271 0 min 0,000 mm 0,0 UV-I 49 W/m 6,2 C 6,4 C 12,9 km/h (3 Bft) 94,29 %
08.04.2017 08:30 8,2 C 88 % 1023,9 hPa 0,0 l/m 8,3 km/h (2 Bft) W 271 0 min 0,000 mm 0,0 UV-I 50 W/m 6,3 C 6,7 C 11,3 km/h (2 Bft) 92,86 %
08.04.2017 08:32 8,1 C 88 % 1023,9 hPa 0,0 l/m 6,9 km/h (2 Bft) W-SW 242 0 min 0,000 mm 0,0 UV-I 52 W/m 6,2 C 7,7 C 11,3 km/h (2 Bft) 86,84 %
08.04.2017 08:34 8,2 C 88 % 1023,9 hPa 0,0 l/m 6,4 km/h (2 Bft) W-SW 248 0 min 0,000 mm 0,0 UV-I 54 W/m 6,3 C 8,2 C 9,7 km/h (2 Bft) 98,11 %
08.04.2017 08:36 8,2 C 88 % 1023,9 hPa 0,0 l/m 8,6 km/h (2 Bft) W-SW 238 0 min 0,000 mm 0,0 UV-I 51 W/m 6,3 C 6,5 C 14,5 km/h (3 Bft) 93,62 %
08.04.2017 08:38 8,2 C 88 % 1023,9 hPa 0,0 l/m 7,3 km/h (2 Bft) W 273 0 min 0,000 mm 0,0 UV-I 49 W/m 6,3 C 7,5 C 12,9 km/h (3 Bft) 88,00 %
08.04.2017 08:40 8,2 C 88 % 1023,9 hPa 0,0 l/m 5,3 km/h (1 Bft) SW 219 0 min 0,000 mm 0,0 UV-I 50 W/m 6,3 C 8,2 C 11,3 km/h (2 Bft) 95,74 %
08.04.2017 08:42 8,2 C 88 % 1023,9 hPa 0,0 l/m 5,4 km/h (1 Bft) SW 227 0 min 0,000 mm 0,0 UV-I 51 W/m 6,3 C 8,2 C 6,4 km/h (2 Bft) 96,88 %
08.04.2017 08:46 8,2 C 88 % 1024,0 hPa 0,0 l/m 4,9 km/h (1 Bft) W 260 0 min 0,000 mm 0,0 UV-I 62 W/m 6,3 C 8,2 C 6,4 km/h (2 Bft) 95,59 %
08.04.2017 08:48 8,2 C 88 % 1024,0 hPa 0,0 l/m 7,8 km/h (2 Bft) W-SW 248 0 min 0,000 mm 0,0 UV-I 60 W/m 6,3 C 7,1 C 12,9 km/h (3 Bft) 98,11 %
08.04.2017 08:50 8,2 C 88 % 1024,0 hPa 0,0 l/m 7,4 km/h (2 Bft) SW 232 0 min 0,000 mm 0,0 UV-I 58 W/m 6,3 C 7,4 C 11,3 km/h (2 Bft) 94,44 %
08.04.2017 08:52 8,2 C 88 % 1024,0 hPa 0,0 l/m 10,3 km/h (2 Bft) W-SW 251 0 min 0,000 mm 0,0 UV-I 61 W/m 6,3 C 5,4 C 16,1 km/h (3 Bft) 96,00 %
08.04.2017 08:54 8,2 C 88 % 1024,0 hPa 0,0 l/m 9,5 km/h (2 Bft) W-SW 238 0 min 0,000 mm 0,0 UV-I 68 W/m 6,3 C 5,9 C 16,1 km/h (3 Bft) 98,00 %
08.04.2017 08:56 8,2 C 88 % 1024,0 hPa 0,0 l/m 9,5 km/h (2 Bft) W-SW 250 0 min 0,000 mm 0,0 UV-I 72 W/m 6,3 C 5,9 C 12,9 km/h (3 Bft) 97,56 %
08.04.2017 08:58 8,2 C 88 % 1024,1 hPa 0,0 l/m 11,2 km/h (2 Bft) W-SW 238 0 min 0,000 mm 0,0 UV-I 74 W/m 6,3 C 4,9 C 16,1 km/h (3 Bft) 96,00 %
08.04.2017 09:00 8,2 C 88 % 1024,0 hPa 0,0 l/m 9,8 km/h (2 Bft) SW 232 0 min 0,026 mm 0,0 UV-I 80 W/m 6,3 C 5,7 C 16,1 km/h (3 Bft) 96,30 %
08.04.2017 09:02 8,2 C 88 % 1024,0 hPa 0,0 l/m 12,1 km/h (2 Bft) W-NW 290 0 min 0,000 mm 0,0 UV-I 92 W/m 6,3 C 4,4 C 19,3 km/h (3 Bft) 96,15 %
08.04.2017 09:04 8,2 C 88 % 1024,0 hPa 0,0 l/m 9,1 km/h (2 Bft) W-SW 247 0 min 0,000 mm 0,0 UV-I 101 W/m 6,3 C 6,2 C 16,1 km/h (3 Bft) 96,92 %
08.04.2017 09:06 8,3 C 88 % 1024,0 hPa 0,0 l/m 11,0 km/h (2 Bft) W-SW 252 0 min 0,000 mm 0,0 UV-I 109 W/m 6,4 C 5,1 C 17,7 km/h (3 Bft) 100,00 %
08.04.2017 09:08 8,3 C 88 % 1024,0 hPa 0,0 l/m 9,3 km/h (2 Bft) SW 227 0 min 0,000 mm 0,0 UV-I 117 W/m 6,4 C 6,2 C 16,1 km/h (3 Bft) 97,18 %
08.04.2017 09:10 8,3 C 88 % 1024,0 hPa 0,0 l/m 11,4 km/h (2 Bft) W-SW 252 0 min 0,000 mm 0,0 UV-I 118 W/m 6,4 C 4,9 C 17,7 km/h (3 Bft) 100,00 %
08.04.2017 09:12 8,3 C 88 % 1024,0 hPa 0,0 l/m 12,5 km/h (3 Bft) W 259 0 min 0,000 mm 0,0 UV-I 122 W/m 6,4 C 4,3 C 17,7 km/h (3 Bft) 100,00 %
08.04.2017 09:14 8,4 C 88 % 1024,0 hPa 0,0 l/m 10,8 km/h (2 Bft) W 262 0 min 0,000 mm 0,0 UV-I 114 W/m 6,5 C 5,3 C 16,1 km/h (3 Bft) 98,11 %
08.04.2017 09:16 8,4 C 88 % 1024,1 hPa 0,0 l/m 9,8 km/h (2 Bft) W 264 0 min 0,000 mm 0,0 UV-I 107 W/m 6,5 C 6,0 C 14,5 km/h (3 Bft) 97,56 %
08.04.2017 09:18 8,4 C 88 % 1024,1 hPa 0,0 l/m 11,8 km/h (2 Bft) W-SW 245 0 min 0,000 mm 0,0 UV-I 112 W/m 6,5 C 4,8 C 17,7 km/h (3 Bft) 96,23 %
08.04.2017 09:20 8,4 C 88 % 1024,1 hPa 0,0 l/m 9,2 km/h (2 Bft) SW 236 0 min 0,000 mm 0,0 UV-I 117 W/m 6,5 C 6,3 C 14,5 km/h (3 Bft) 97,37 %
08.04.2017 09:22 8,4 C 88 % 1024,2 hPa 0,0 l/m 11,2 km/h (2 Bft) W-SW 258 0 min 0,000 mm 0,0 UV-I 109 W/m 6,5 C 5,1 C 16,1 km/h (3 Bft) 93,62 %
08.04.2017 09:24 8,4 C 88 % 1024,2 hPa 0,0 l/m 13,8 km/h (3 Bft) W-SW 248 0 min 0,000 mm 0,0 UV-I 101 W/m 6,5 C 3,8 C 20,9 km/h (4 Bft) 100,00 %
08.04.2017 09:26 8,4 C 88 % 1024,2 hPa 0,0 l/m 7,5 km/h (2 Bft) W-SW 256 0 min 0,000 mm 0,0 UV-I 99 W/m 6,5 C 7,5 C 14,5 km/h (3 Bft) 98,08 %
08.04.2017 09:28 8,4 C 88 % 1024,1 hPa 0,0 l/m 8,0 km/h (2 Bft) W 265 0 min 0,000 mm 0,1 UV-I 105 W/m 6,5 C 7,2 C 14,5 km/h (3 Bft) 97,62 %
08.04.2017 09:30 8,4 C 88 % 1024,2 hPa 0,0 l/m 10,4 km/h (2 Bft) W-SW 240 0 min 0,000 mm 0,5 UV-I 115 W/m 6,5 C 5,6 C 16,1 km/h (3 Bft) 96,55 %
08.04.2017 09:32 8,4 C 88 % 1024,2 hPa 0,0 l/m 8,3 km/h (2 Bft) W-SW 244 0 min 0,000 mm 0,5 UV-I 121 W/m 6,5 C 7,0 C 12,9 km/h (3 Bft) 94,87 %
08.04.2017 09:34 8,5 C 88 % 1024,2 hPa 0,0 l/m 7,9 km/h (2 Bft) SW 227 0 min 0,000 mm 0,5 UV-I 121 W/m 6,6 C 7,4 C 12,9 km/h (3 Bft) 98,00 %
08.04.2017 09:36 8,5 C 88 % 1024,2 hPa 0,0 l/m 6,8 km/h (2 Bft) W 274 0 min 0,000 mm 0,5 UV-I 115 W/m 6,6 C 8,2 C 11,3 km/h (2 Bft) 96,15 %
08.04.2017 09:38 8,5 C 88 % 1024,2 hPa 0,0 l/m 7,4 km/h (2 Bft) W-SW 248 0 min 0,000 mm 0,5 UV-I 120 W/m 6,6 C 7,7 C 11,3 km/h (2 Bft) 93,22 %
08.04.2017 09:40 8,6 C 88 % 1024,2 hPa 0,0 l/m 10,2 km/h (2 Bft) W 260 0 min 0,000 mm 0,5 UV-I 123 W/m 6,7 C 5,9 C 14,5 km/h (3 Bft) 96,43 %
08.04.2017 09:42 8,6 C 88 % 1024,3 hPa 0,0 l/m 10,5 km/h (2 Bft) S-SW 200 0 min 0,000 mm 0,5 UV-I 129 W/m 6,7 C 5,7 C 14,5 km/h (3 Bft) 98,00 %
08.04.2017 09:44 8,6 C 88 % 1024,3 hPa 0,0 l/m 7,6 km/h (2 Bft) SW 233 0 min 0,000 mm 0,5 UV-I 123 W/m 6,7 C 7,7 C 11,3 km/h (2 Bft) 95,74 %
08.04.2017 09:46 8,6 C 88 % 1024,2 hPa 0,0 l/m 8,4 km/h (2 Bft) W-SW 258 0 min 0,000 mm 0,5 UV-I 113 W/m 6,7 C 7,1 C 12,9 km/h (3 Bft) 95,12 %
08.04.2017 09:48 8,6 C 88 % 1024,3 hPa 0,0 l/m 6,7 km/h (2 Bft) W 266 0 min 0,000 mm 0,5 UV-I 128 W/m 6,7 C 8,4 C 11,3 km/h (2 Bft) 94,00 %
08.04.2017 09:50 8,6 C 88 % 1024,3 hPa 0,0 l/m 10,0 km/h (2 Bft) W-SW 257 0 min 0,000 mm 0,6 UV-I 135 W/m 6,7 C 6,0 C 17,7 km/h (3 Bft) 97,73 %
08.04.2017 09:52 8,7 C 87 % 1024,3 hPa 0,0 l/m 9,0 km/h (2 Bft) W-SW 248 0 min 0,000 mm 0,6 UV-I 136 W/m 6,7 C 6,8 C 14,5 km/h (3 Bft) 97,87 %
08.04.2017 09:54 8,7 C 87 % 1024,3 hPa 0,0 l/m 10,6 km/h (2 Bft) W 260 0 min 0,000 mm 0,6 UV-I 135 W/m 6,7 C 5,8 C 14,5 km/h (3 Bft) 97,87 %
08.04.2017 09:56 8,7 C 87 % 1024,4 hPa 0,0 l/m 8,0 km/h (2 Bft) W 269 0 min 0,000 mm 0,6 UV-I 133 W/m 6,7 C 7,5 C 12,9 km/h (3 Bft) 97,56 %
08.04.2017 09:58 8,7 C 87 % 1024,3 hPa 0,0 l/m 6,8 km/h (2 Bft) SW 223 0 min 0,000 mm 0,6 UV-I 144 W/m 6,7 C 8,4 C 11,3 km/h (2 Bft) 92,86 %
08.04.2017 10:00 8,8 C 87 % 1024,4 hPa 0,0 l/m 7,3 km/h (2 Bft) W 273 0 min 0,076 mm 0,8 UV-I 177 W/m 6,8 C 8,1 C 11,3 km/h (2 Bft) 98,00 %
08.04.2017 10:02 8,8 C 87 % 1024,3 hPa 0,0 l/m 6,6 km/h (2 Bft) SW 217 0 min 0,000 mm 0,7 UV-I 178 W/m 6,8 C 8,7 C 9,7 km/h (2 Bft) 94,74 %
08.04.2017 10:04 8,9 C 86 % 1024,3 hPa 0,0 l/m 5,7 km/h (1 Bft) W-SW 253 0 min 0,000 mm 0,7 UV-I 171 W/m 6,7 C 8,9 C 11,3 km/h (2 Bft) 96,23 %
08.04.2017 10:06 9,0 C 86 % 1024,3 hPa 0,0 l/m 8,7 km/h (2 Bft) W-SW 255 0 min 0,000 mm 0,8 UV-I 176 W/m 6,8 C 7,3 C 12,9 km/h (3 Bft) 100,00 %
08.04.2017 10:08 9,1 C 86 % 1024,3 hPa 0,0 l/m 9,4 km/h (2 Bft) W-SW 256 0 min 0,000 mm 0,9 UV-I 204 W/m 6,9 C 7,0 C 14,5 km/h (3 Bft) 96,23 %
08.04.2017 10:10 9,1 C 86 % 1024,3 hPa 0,0 l/m 9,5 km/h (2 Bft) SW 236 0 min 0,000 mm 0,9 UV-I 226 W/m 6,9 C 6,9 C 14,5 km/h (3 Bft) 94,23 %
08.04.2017 10:12 9,2 C 85 % 1024,3 hPa 0,0 l/m 8,6 km/h (2 Bft) SW 236 0 min 0,000 mm 0,9 UV-I 221 W/m 6,8 C 7,6 C 12,9 km/h (3 Bft) 96,97 %
08.04.2017 10:14 9,3 C 85 % 1024,3 hPa 0,0 l/m 7,6 km/h (2 Bft) W-NW 287 0 min 0,000 mm 1,0 UV-I 233 W/m 6,9 C 8,4 C 11,3 km/h (2 Bft) 98,31 %
08.04.2017 10:16 9,3 C 85 % 1024,3 hPa 0,0 l/m 10,1 km/h (2 Bft) S-SW 213 0 min 0,000 mm 1,1 UV-I 260 W/m 6,9 C 6,8 C 14,5 km/h (3 Bft) 100,00 %
08.04.2017 10:18 9,4 C 84 % 1024,3 hPa 0,0 l/m 9,2 km/h (2 Bft) W-SW 247 0 min 0,000 mm 1,2 UV-I 267 W/m 6,8 C 7,4 C 12,9 km/h (3 Bft) 92,45 %
08.04.2017 10:20 9,5 C 84 % 1024,3 hPa 0,0 l/m 9,2 km/h (2 Bft) SW 229 0 min 0,000 mm 1,2 UV-I 260 W/m 6,9 C 7,5 C 16,1 km/h (3 Bft) 97,87 %
08.04.2017 10:22 9,5 C 84 % 1024,4 hPa 0,0 l/m 8,4 km/h (2 Bft) W-SW 256 0 min 0,000 mm 1,2 UV-I 257 W/m 6,9 C 8,1 C 12,9 km/h (3 Bft) 100,00 %
08.04.2017 10:24 9,6 C 84 % 1024,4 hPa 0,0 l/m 6,0 km/h (2 Bft) W 269 0 min 0,000 mm 1,3 UV-I 261 W/m 7,0 C 9,6 C 12,9 km/h (3 Bft) 94,34 %
08.04.2017 10:26 9,7 C 83 % 1024,4 hPa 0,0 l/m 9,7 km/h (2 Bft) W 261 0 min 0,000 mm 1,2 UV-I 247 W/m 7,0 C 7,4 C 19,3 km/h (3 Bft) 97,56 %
08.04.2017 10:28 9,7 C 83 % 1024,4 hPa 0,0 l/m 12,2 km/h (2 Bft) W-NW 290 0 min 0,000 mm 1,1 UV-I 224 W/m 7,0 C 6,1 C 17,7 km/h (3 Bft) 100,00 %
08.04.2017 10:30 9,7 C 83 % 1024,4 hPa 0,0 l/m 10,1 km/h (2 Bft) W 281 0 min 0,000 mm 1,1 UV-I 205 W/m 7,0 C 7,2 C 16,1 km/h (3 Bft) 98,11 %
08.04.2017 10:32 9,7 C 83 % 1024,4 hPa 0,0 l/m 4,8 km/h (1 Bft) SW 229 0 min 0,000 mm 1,0 UV-I 200 W/m 7,0 C 9,7 C 8,0 km/h (2 Bft) 96,23 %
08.04.2017 10:34 9,7 C 83 % 1024,4 hPa 0,0 l/m 7,7 km/h (2 Bft) W 273 0 min 0,000 mm 1,0 UV-I 199 W/m 7,0 C 8,7 C 12,9 km/h (3 Bft) 94,74 %
08.04.2017 10:36 9,7 C 83 % 1024,5 hPa 0,0 l/m 9,4 km/h (2 Bft) W 281 0 min 0,000 mm 1,0 UV-I 197 W/m 7,0 C 7,6 C 14,5 km/h (3 Bft) 92,68 %
08.04.2017 10:38 9,7 C 82 % 1024,5 hPa 0,0 l/m 10,5 km/h (2 Bft) W-NW 292 0 min 0,000 mm 1,1 UV-I 210 W/m 6,8 C 7,0 C 14,5 km/h (3 Bft) 100,00 %
08.04.2017 10:40 9,7 C 83 % 1024,5 hPa 0,0 l/m 3,3 km/h (1 Bft) W-SW 257 0 min 0,000 mm 1,1 UV-I 223 W/m 7,0 C 9,7 C 6,4 km/h (2 Bft) 97,87 %
08.04.2017 10:42 9,8 C 83 % 1024,4 hPa 0,0 l/m 8,4 km/h (2 Bft) W-SW 248 0 min 0,000 mm 1,3 UV-I 234 W/m 7,1 C 8,4 C 14,5 km/h (3 Bft) 100,00 %
08.04.2017 10:44 9,8 C 82 % 1024,5 hPa 0,0 l/m 10,7 km/h (2 Bft) W-SW 244 0 min 0,000 mm 1,4 UV-I 239 W/m 6,9 C 7,0 C 16,1 km/h (3 Bft) 100,00 %
08.04.2017 10:46 9,8 C 82 % 1024,4 hPa 0,0 l/m 8,2 km/h (2 Bft) W-SW 255 0 min 0,000 mm 1,4 UV-I 233 W/m 6,9 C 8,5 C 14,5 km/h (3 Bft) 100,00 %
08.04.2017 10:48 9,8 C 82 % 1024,4 hPa 0,0 l/m 5,9 km/h (2 Bft) S-SW 213 0 min 0,000 mm 1,7 UV-I 300 W/m 6,9 C 9,8 C 9,7 km/h (2 Bft) 97,44 %
08.04.2017 10:50 10,0 C 83 % 1024,4 hPa 0,0 l/m 6,5 km/h (2 Bft) W 261 2 min 0,000 mm 1,9 UV-I 380 W/m 7,2 C 10,0 C 9,7 km/h (2 Bft) 98,11 %
08.04.2017 10:52 10,2 C 83 % 1024,5 hPa 0,0 l/m 6,4 km/h (2 Bft) W-NW 284 0 min 0,000 mm 1,7 UV-I 334 W/m 7,4 C 10,2 C 12,9 km/h (3 Bft) 100,00 %
08.04.2017 10:54 10,3 C 81 % 1024,4 hPa 0,0 l/m 8,7 km/h (2 Bft) W-SW 252 0 min 0,000 mm 1,6 UV-I 305 W/m 7,2 C 8,7 C 12,9 km/h (3 Bft) 100,00 %
08.04.2017 10:56 10,3 C 80 % 1024,4 hPa 0,0 l/m 11,6 km/h (2 Bft) W 263 0 min 0,000 mm 1,7 UV-I 299 W/m 7,0 C 7,1 C 16,1 km/h (3 Bft) 100,00 %
08.04.2017 10:58 10,2 C 80 % 1024,4 hPa 0,0 l/m 10,8 km/h (2 Bft) SW 221 0 min 0,000 mm 1,7 UV-I 272 W/m 6,9 C 7,4 C 14,5 km/h (3 Bft) 97,56 %
08.04.2017 11:00 10,2 C 81 % 1024,5 hPa 0,0 l/m 10,6 km/h (2 Bft) W-SW 240 0 min 0,127 mm 1,8 UV-I 293 W/m 7,1 C 7,5 C 19,3 km/h (3 Bft) 100,00 %
08.04.2017 11:02 10,2 C 80 % 1024,5 hPa 0,0 l/m 10,8 km/h (2 Bft) W 260 0 min 0,000 mm 1,9 UV-I 341 W/m 6,9 C 7,4 C 14,5 km/h (3 Bft) 100,00 %
08.04.2017 11:04 10,1 C 81 % 1024,5 hPa 0,0 l/m 10,3 km/h (2 Bft) W 264 0 min 0,000 mm 1,9 UV-I 317 W/m 7,0 C 7,5 C 14,5 km/h (3 Bft) 100,00 %
08.04.2017 11:06 10,2 C 81 % 1024,5 hPa 0,0 l/m 8,9 km/h (2 Bft) SW 223 2 min 0,000 mm 2,0 UV-I 374 W/m 7,1 C 8,5 C 14,5 km/h (3 Bft) 100,00 %
08.04.2017 11:08 10,2 C 81 % 1024,5 hPa 0,0 l/m 10,3 km/h (2 Bft) SW 229 0 min 0,000 mm 2,2 UV-I 318 W/m 7,1 C 7,6 C 17,7 km/h (3 Bft) 98,00 %
08.04.2017 11:10 10,3 C 81 % 1024,5 hPa 0,0 l/m 8,6 km/h (2 Bft) W-SW 255 2 min 0,000 mm 2,3 UV-I 406 W/m 7,2 C 8,8 C 14,5 km/h (3 Bft) 100,00 %
08.04.2017 11:12 10,4 C 81 % 1024,5 hPa 0,0 l/m 8,7 km/h (2 Bft) W-NW 300 2 min 0,000 mm 2,3 UV-I 398 W/m 7,3 C 8,8 C 14,5 km/h (3 Bft) 96,43 %
08.04.2017 11:14 10,6 C 80 % 1024,4 hPa 0,0 l/m 8,5 km/h (2 Bft) W 259 2 min 0,000 mm 2,5 UV-I 444 W/m 7,3 C 9,2 C 12,9 km/h (3 Bft) 95,45 %
08.04.2017 11:16 10,7 C 80 % 1024,5 hPa 0,0 l/m 11,0 km/h (2 Bft) W 269 2 min 0,000 mm 2,3 UV-I 466 W/m 7,4 C 7,8 C 17,7 km/h (3 Bft) 96,00 %
08.04.2017 11:18 10,7 C 79 % 1024,4 hPa 0,0 l/m 10,9 km/h (2 Bft) S-SW 203 2 min 0,000 mm 2,8 UV-I 458 W/m 7,2 C 7,9 C 14,5 km/h (3 Bft) 96,00 %
08.04.2017 11:20 10,8 C 80 % 1024,4 hPa 0,0 l/m 9,6 km/h (2 Bft) W 265 2 min 0,000 mm 3,1 UV-I 872 W/m 7,5 C 8,7 C 14,5 km/h (3 Bft) 100,00 %
08.04.2017 11:22 11,1 C 79 % 1024,4 hPa 0,0 l/m 9,6 km/h (2 Bft) W-SW 251 2 min 0,000 mm 3,3 UV-I 916 W/m 7,6 C 9,0 C 14,5 km/h (3 Bft) 95,45 %
08.04.2017 11:24 11,3 C 79 % 1024,4 hPa 0,0 l/m 10,5 km/h (2 Bft) S 182 2 min 0,000 mm 3,0 UV-I 613 W/m 7,8 C 8,8 C 17,7 km/h (3 Bft) 100,00 %
08.04.2017 11:26 11,6 C 79 % 1024,4 hPa 0,0 l/m 11,4 km/h (2 Bft) W 269 2 min 0,000 mm 3,4 UV-I 929 W/m 8,1 C 8,6 C 14,5 km/h (3 Bft) 100,00 %
08.04.2017 11:28 11,8 C 78 % 1024,4 hPa 0,0 l/m 7,7 km/h (2 Bft) W 261 2 min 0,000 mm 2,8 UV-I 823 W/m 8,1 C 10,9 C 12,9 km/h (3 Bft) 95,45 %
08.04.2017 11:30 11,9 C 79 % 1024,4 hPa 0,0 l/m 8,1 km/h (2 Bft) W-SW 248 2 min 0,000 mm 2,4 UV-I 524 W/m 8,4 C 10,8 C 17,7 km/h (3 Bft) 96,00 %
08.04.2017 11:32 11,7 C 77 % 1024,4 hPa 0,0 l/m 6,5 km/h (2 Bft) S-SW 205 0 min 0,000 mm 2,1 UV-I 360 W/m 7,8 C 11,7 C 9,7 km/h (2 Bft) 92,45 %
08.04.2017 11:34 11,6 C 77 % 1024,4 hPa 0,0 l/m 9,7 km/h (2 Bft) W-SW 257 0 min 0,000 mm 2,1 UV-I 355 W/m 7,7 C 9,5 C 19,3 km/h (3 Bft) 96,00 %
08.04.2017 11:36 11,7 C 79 % 1024,4 hPa 0,0 l/m 7,2 km/h (2 Bft) W 277 2 min 0,000 mm 2,2 UV-I 406 W/m 8,2 C 11,2 C 12,9 km/h (3 Bft) 97,56 %
08.04.2017 11:38 11,7 C 78 % 1024,4 hPa 0,0 l/m 8,4 km/h (2 Bft) W-NW 288 2 min 0,000 mm 2,3 UV-I 435 W/m 8,0 C 10,4 C 14,5 km/h (3 Bft) 95,12 %
08.04.2017 11:40 11,7 C 77 % 1024,3 hPa 0,0 l/m 6,1 km/h (2 Bft) W 260 2 min 0,000 mm 2,5 UV-I 449 W/m 7,8 C 11,7 C 11,3 km/h (2 Bft) 98,31 %
08.04.2017 11:42 11,7 C 77 % 1024,4 hPa 0,0 l/m 12,7 km/h (3 Bft) W 273 2 min 0,000 mm 2,2 UV-I 444 W/m 7,8 C 8,2 C 17,7 km/h (3 Bft) 97,73 %
08.04.2017 11:44 11,6 C 77 % 1024,4 hPa 0,0 l/m 7,4 km/h (2 Bft) W 265 0 min 0,000 mm 2,2 UV-I 347 W/m 7,7 C 10,9 C 12,9 km/h (3 Bft) 95,45 %
08.04.2017 11:46 11,5 C 77 % 1024,4 hPa 0,0 l/m 9,4 km/h (2 Bft) W 259 2 min 0,000 mm 2,4 UV-I 416 W/m 7,6 C 9,6 C 14,5 km/h (3 Bft) 98,11 %
08.04.2017 11:48 11,5 C 78 % 1024,4 hPa 0,0 l/m 12,3 km/h (3 Bft) W 280 2 min 0,000 mm 2,5 UV-I 567 W/m 7,8 C 8,1 C 17,7 km/h (3 Bft) 96,15 %
08.04.2017 11:50 11,6 C 77 % 1024,4 hPa 0,0 l/m 7,9 km/h (2 Bft) W 261 2 min 0,000 mm 2,6 UV-I 479 W/m 7,7 C 10,6 C 14,5 km/h (3 Bft) 98,21 %
08.04.2017 11:52 11,6 C 78 % 1024,3 hPa 0,0 l/m 10,2 km/h (2 Bft) SW 222 2 min 0,000 mm 2,7 UV-I 522 W/m 7,9 C 9,3 C 16,1 km/h (3 Bft) 96,43 %
08.04.2017 11:54 11,7 C 77 % 1024,3 hPa 0,0 l/m 10,3 km/h (2 Bft) W-SW 240 2 min 0,000 mm 2,6 UV-I 495 W/m 7,8 C 9,3 C 14,5 km/h (3 Bft) 94,74 %
08.04.2017 11:56 11,8 C 78 % 1024,4 hPa 0,0 l/m 7,4 km/h (2 Bft) SW 230 2 min 0,000 mm 2,6 UV-I 474 W/m 8,1 C 11,1 C 14,5 km/h (3 Bft) 98,15 %
08.04.2017 11:58 12,0 C 78 % 1024,3 hPa 0,0 l/m 6,4 km/h (2 Bft) W-SW 250 2 min 0,000 mm 2,6 UV-I 458 W/m 8,3 C 12,0 C 11,3 km/h (2 Bft) 100,00 %
08.04.2017 12:00 12,1 C 76 % 1024,3 hPa 0,0 l/m 10,3 km/h (2 Bft) W 262 2 min 0,254 mm 3,0 UV-I 589 W/m 8,0 C 9,8 C 16,1 km/h (3 Bft) 100,00 %
08.04.2017 12:02 12,0 C 75 % 1024,3 hPa 0,0 l/m 5,3 km/h (1 Bft) W-NW 298 2 min 0,000 mm 3,0 UV-I 633 W/m 7,7 C 12,0 C 12,9 km/h (3 Bft) 97,37 %
08.04.2017 12:04 12,1 C 77 % 1024,3 hPa 0,0 l/m 3,4 km/h (1 Bft) W-SW 238 2 min 0,000 mm 2,9 UV-I 548 W/m 8,2 C 12,1 C 6,4 km/h (2 Bft) 100,00 %
08.04.2017 12:06 12,3 C 76 % 1024,3 hPa 0,0 l/m 9,7 km/h (2 Bft) W 260 2 min 0,000 mm 2,7 UV-I 467 W/m 8,2 C 10,3 C 17,7 km/h (3 Bft) 97,73 %
08.04.2017 12:08 12,3 C 75 % 1024,3 hPa 0,0 l/m 9,3 km/h (2 Bft) W-NW 296 2 min 0,000 mm 2,7 UV-I 457 W/m 8,0 C 10,5 C 16,1 km/h (3 Bft) 100,00 %
08.04.2017 12:10 12,2 C 75 % 1024,3 hPa 0,0 l/m 7,3 km/h (2 Bft) W-SW 249 2 min 0,000 mm 2,8 UV-I 472 W/m 7,9 C 11,6 C 12,9 km/h (3 Bft) 100,00 %
08.04.2017 12:12 12,2 C 77 % 1024,3 hPa 0,0 l/m 4,3 km/h (1 Bft) W 259 2 min 0,000 mm 3,0 UV-I 498 W/m 8,3 C 12,2 C 8,0 km/h (2 Bft) 95,45 %
08.04.2017 12:14 12,3 C 75 % 1024,3 hPa 0,0 l/m 9,3 km/h (2 Bft) W 261 2 min 0,000 mm 2,9 UV-I 486 W/m 8,0 C 10,5 C 16,1 km/h (3 Bft) 96,23 %
08.04.2017 12:16 12,3 C 75 % 1024,3 hPa 0,0 l/m 3,6 km/h (1 Bft) SW 223 2 min 0,000 mm 2,9 UV-I 480 W/m 8,0 C 12,3 C 4,8 km/h (1 Bft) 96,00 %
08.04.2017 12:18 12,4 C 76 % 1024,3 hPa 0,0 l/m 6,3 km/h (2 Bft) W 267 2 min 0,000 mm 3,0 UV-I 537 W/m 8,3 C 12,4 C 12,9 km/h (3 Bft) 98,00 %
08.04.2017 12:20 12,4 C 76 % 1024,3 hPa 0,0 l/m 7,7 km/h (2 Bft) W-SW 246 2 min 0,000 mm 3,1 UV-I 489 W/m 8,3 C 11,6 C 12,9 km/h (3 Bft) 97,73 %
08.04.2017 12:22 12,4 C 75 % 1024,2 hPa 0,0 l/m 6,5 km/h (2 Bft) W 267 2 min 0,000 mm 2,9 UV-I 465 W/m 8,1 C 12,4 C 11,3 km/h (2 Bft) 97,87 %
08.04.2017 12:24 12,5 C 76 % 1024,2 hPa 0,0 l/m 7,1 km/h (2 Bft) W 267 2 min 0,000 mm 2,9 UV-I 454 W/m 8,4 C 12,0 C 12,9 km/h (3 Bft) 97,56 %
08.04.2017 12:26 12,5 C 75 % 1024,1 hPa 0,0 l/m 9,5 km/h (2 Bft) W-NW 296 2 min 0,000 mm 3,0 UV-I 523 W/m 8,2 C 10,6 C 14,5 km/h (3 Bft) 97,73 %
08.04.2017 12:28 12,6 C 75 % 1024,1 hPa 0,0 l/m 4,3 km/h (1 Bft) W-NW 288 2 min 0,000 mm 3,1 UV-I 564 W/m 8,3 C 12,6 C 9,7 km/h (2 Bft) 98,11 %
08.04.2017 12:30 12,6 C 75 % 1024,1 hPa 0,0 l/m 4,7 km/h (1 Bft) W 264 2 min 0,000 mm 3,3 UV-I 582 W/m 8,3 C 12,6 C 9,7 km/h (2 Bft) 97,87 %
08.04.2017 12:32 12,8 C 76 % 1024,0 hPa 0,0 l/m 2,6 km/h (1 Bft) N 351 2 min 0,000 mm 3,2 UV-I 668 W/m 8,7 C 12,8 C 9,7 km/h (2 Bft) 98,00 %
08.04.2017 12:34 12,9 C 75 % 1024,1 hPa 0,0 l/m 6,8 km/h (2 Bft) W 280 2 min 0,000 mm 3,5 UV-I 582 W/m 8,6 C 12,7 C 16,1 km/h (3 Bft) 95,74 %
08.04.2017 12:36 12,9 C 73 % 1024,0 hPa 0,0 l/m 7,8 km/h (2 Bft) W-NW 287 2 min 0,000 mm 3,3 UV-I 561 W/m 8,2 C 12,0 C 16,1 km/h (3 Bft) 100,00 %
08.04.2017 12:38 12,8 C 73 % 1024,0 hPa 0,0 l/m 10,5 km/h (2 Bft) W 263 2 min 0,000 mm 3,0 UV-I 459 W/m 8,1 C 10,4 C 20,9 km/h (4 Bft) 98,21 %
08.04.2017 12:40 12,9 C 75 % 1024,0 hPa 0,0 l/m 6,0 km/h (2 Bft) W 265 2 min 0,000 mm 3,2 UV-I 515 W/m 8,6 C 12,9 C 11,3 km/h (2 Bft) 97,56 %
08.04.2017 12:42 12,9 C 74 % 1023,9 hPa 0,0 l/m 8,6 km/h (2 Bft) SW 219 2 min 0,000 mm 3,4 UV-I 576 W/m 8,4 C 11,5 C 14,5 km/h (3 Bft) 98,11 %
08.04.2017 12:44 12,9 C 72 % 1023,9 hPa 0,0 l/m 10,2 km/h (2 Bft) SW 231 2 min 0,000 mm 3,6 UV-I 652 W/m 8,0 C 10,7 C 16,1 km/h (3 Bft) 97,87 %
08.04.2017 12:46 13,0 C 73 % 1024,0 hPa 0,0 l/m 7,4 km/h (2 Bft) W 264 2 min 0,000 mm 3,4 UV-I 597 W/m 8,3 C 12,4 C 12,9 km/h (3 Bft) 97,22 %
08.04.2017 12:48 13,1 C 73 % 1023,9 hPa 0,0 l/m 7,5 km/h (2 Bft) W 260 2 min 0,000 mm 3,6 UV-I 657 W/m 8,4 C 12,4 C 14,5 km/h (3 Bft) 98,21 %
08.04.2017 12:50 13,2 C 74 % 1023,9 hPa 0,0 l/m 9,1 km/h (2 Bft) W-SW 250 2 min 0,000 mm 3,7 UV-I 695 W/m 8,7 C 11,6 C 14,5 km/h (3 Bft) 97,56 %
08.04.2017 12:52 13,2 C 74 % 1023,8 hPa 0,0 l/m 8,6 km/h (2 Bft) N 349 2 min 0,000 mm 3,8 UV-I 731 W/m 8,7 C 11,9 C 12,9 km/h (3 Bft) 96,23 %
08.04.2017 12:54 13,3 C 73 % 1023,8 hPa 0,0 l/m 4,0 km/h (1 Bft) W-NW 300 2 min 0,000 mm 3,7 UV-I 731 W/m 8,6 C 13,3 C 12,9 km/h (3 Bft) 97,37 %
08.04.2017 12:56 13,4 C 76 % 1023,8 hPa 0,0 l/m 6,5 km/h (2 Bft) NW 306 2 min 0,000 mm 3,8 UV-I 729 W/m 9,3 C 13,4 C 12,9 km/h (3 Bft) 96,43 %
08.04.2017 12:58 13,6 C 73 % 1023,9 hPa 0,0 l/m 6,4 km/h (2 Bft) W 276 2 min 0,000 mm 4,0 UV-I 786 W/m 8,9 C 13,6 C 14,5 km/h (3 Bft) 100,00 %
08.04.2017 13:00 13,5 C 72 % 1023,7 hPa 0,0 l/m 3,3 km/h (1 Bft) W 262 2 min 0,000 mm 4,0 UV-I 785 W/m 8,6 C 13,5 C 9,7 km/h (2 Bft) 96,92 %
08.04.2017 13:02 13,6 C 73 % 1023,7 hPa 0,0 l/m 1,8 km/h (1 Bft) W-NW 290 2 min 0,305 mm 4,0 UV-I 787 W/m 8,9 C 13,6 C 4,8 km/h (1 Bft) 97,73 %
08.04.2017 13:04 13,9 C 74 % 1023,7 hPa 0,0 l/m 5,3 km/h (1 Bft) N-NW 333 2 min 0,000 mm 4,1 UV-I 796 W/m 9,3 C 13,9 C 12,9 km/h (3 Bft) 97,56 %
08.04.2017 13:06 13,9 C 72 % 1023,7 hPa 0,0 l/m 3,9 km/h (1 Bft) N 9 2 min 0,000 mm 3,9 UV-I 800 W/m 8,9 C 13,9 C 9,7 km/h (2 Bft) 98,00 %
08.04.2017 13:08 13,7 C 72 % 1023,7 hPa 0,0 l/m 4,9 km/h (1 Bft) W 276 2 min 0,000 mm 3,1 UV-I 635 W/m 8,7 C 13,7 C 8,0 km/h (2 Bft) 96,23 %
08.04.2017 13:10 13,7 C 71 % 1023,6 hPa 0,0 l/m 4,6 km/h (1 Bft) W-SW 237 2 min 0,000 mm 3,6 UV-I 492 W/m 8,5 C 13,7 C 11,3 km/h (2 Bft) 97,56 %
08.04.2017 13:12 13,6 C 72 % 1023,6 hPa 0,0 l/m 5,6 km/h (1 Bft) W-NW 290 2 min 0,000 mm 3,3 UV-I 492 W/m 8,6 C 13,6 C 11,3 km/h (2 Bft) 92,45 %
08.04.2017 13:14 13,6 C 72 % 1023,6 hPa 0,0 l/m 5,4 km/h (1 Bft) N-NW 331 2 min 0,000 mm 4,0 UV-I 654 W/m 8,6 C 13,6 C 12,9 km/h (3 Bft) 93,62 %
08.04.2017 13:16 13,6 C 71 % 1023,6 hPa 0,0 l/m 6,3 km/h (2 Bft) NW 304 2 min 0,000 mm 4,1 UV-I 806 W/m 8,4 C 13,6 C 12,9 km/h (3 Bft) 95,12 %
08.04.2017 13:18 13,8 C 72 % 1023,5 hPa 0,0 l/m 3,8 km/h (1 Bft) W 271 2 min 0,000 mm 4,1 UV-I 799 W/m 8,8 C 13,8 C 11,3 km/h (2 Bft) 94,34 %
08.04.2017 13:20 13,7 C 69 % 1023,5 hPa 0,0 l/m 7,8 km/h (2 Bft) W 269 2 min 0,000 mm 4,1 UV-I 796 W/m 8,1 C 12,9 C 14,5 km/h (3 Bft) 96,00 %
08.04.2017 13:22 13,7 C 71 % 1023,5 hPa 0,0 l/m 2,5 km/h (1 Bft) NW 308 2 min 0,000 mm 4,1 UV-I 792 W/m 8,5 C 13,7 C 4,8 km/h (1 Bft) 94,87 %
08.04.2017 13:24 13,9 C 72 % 1023,5 hPa 0,0 l/m 3,3 km/h (1 Bft) W-NW 286 2 min 0,000 mm 4,1 UV-I 792 W/m 8,9 C 13,9 C 8,0 km/h (2 Bft) 94,55 %
08.04.2017 13:26 14,2 C 74 % 1023,5 hPa 0,0 l/m 4,2 km/h (1 Bft) W-NW 286 2 min 0,000 mm 4,2 UV-I 796 W/m 9,6 C 14,2 C 9,7 km/h (2 Bft) 95,24 %
08.04.2017 13:28 14,3 C 72 % 1023,4 hPa 0,0 l/m 1,9 km/h (1 Bft) W-NW 287 2 min 0,000 mm 4,2 UV-I 799 W/m 9,3 C 14,3 C 6,4 km/h (2 Bft) 95,12 %
08.04.2017 13:30 14,3 C 70 % 1023,5 hPa 0,0 l/m 3,9 km/h (1 Bft) NW 325 2 min 0,000 mm 4,2 UV-I 787 W/m 8,9 C 14,3 C 6,4 km/h (2 Bft) 96,23 %
08.04.2017 13:32 14,3 C 71 % 1023,5 hPa 0,0 l/m 3,2 km/h (1 Bft) W-SW 254 2 min 0,000 mm 4,2 UV-I 791 W/m 9,1 C 14,3 C 11,3 km/h (2 Bft) 94,00 %
08.04.2017 13:34 14,4 C 71 % 1023,4 hPa 0,0 l/m 2,7 km/h (1 Bft) NW 319 2 min 0,000 mm 4,1 UV-I 792 W/m 9,2 C 14,4 C 6,4 km/h (2 Bft) 95,12 %
08.04.2017 13:36 14,3 C 69 % 1023,4 hPa 0,0 l/m 2,3 km/h (1 Bft) NW 323 2 min 0,000 mm 4,1 UV-I 775 W/m 8,7 C 14,3 C 6,4 km/h (2 Bft) 96,23 %
08.04.2017 13:38 14,3 C 70 % 1023,3 hPa 0,0 l/m 0,7 km/h (0 Bft) NW 323 2 min 0,000 mm 4,1 UV-I 795 W/m 8,9 C 14,3 C 3,2 km/h (1 Bft) 95,45 %
08.04.2017 13:40 14,5 C 72 % 1023,4 hPa 0,0 l/m 2,6 km/h (1 Bft) N-NO 26 2 min 0,000 mm 4,1 UV-I 787 W/m 9,5 C 14,5 C 8,0 km/h (2 Bft) 95,12 %
08.04.2017 13:42 14,7 C 74 % 1023,4 hPa 0,0 l/m 1,0 km/h (0 Bft) N-NW 333 2 min 0,000 mm 4,1 UV-I 788 W/m 10,1 C 14,7 C 4,8 km/h (1 Bft) 94,34 %
08.04.2017 13:44 14,9 C 72 % 1023,3 hPa 0,0 l/m 1,8 km/h (1 Bft) NW 321 2 min 0,000 mm 4,0 UV-I 789 W/m 9,9 C 14,9 C 4,8 km/h (1 Bft) 96,00 %
08.04.2017 13:46 14,8 C 66 % 1023,3 hPa 0,0 l/m 4,5 km/h (1 Bft) W-NW 284 2 min 0,000 mm 4,1 UV-I 789 W/m 8,5 C 14,8 C 12,9 km/h (3 Bft) 97,87 %
08.04.2017 13:48 14,8 C 69 % 1023,3 hPa 0,0 l/m 2,7 km/h (1 Bft) N-NW 342 2 min 0,000 mm 4,1 UV-I 810 W/m 9,2 C 14,8 C 6,4 km/h (2 Bft) 97,56 %
08.04.2017 13:50 14,9 C 70 % 1023,3 hPa 0,0 l/m 5,2 km/h (1 Bft) N-NO 15 2 min 0,000 mm 4,1 UV-I 803 W/m 9,5 C 14,9 C 14,5 km/h (3 Bft) 98,04 %
08.04.2017 13:52 14,9 C 72 % 1023,3 hPa 0,0 l/m 2,6 km/h (1 Bft) N-NO 14 2 min 0,000 mm 4,1 UV-I 807 W/m 9,9 C 14,9 C 8,0 km/h (2 Bft) 97,37 %
08.04.2017 13:54 14,8 C 69 % 1023,3 hPa 0,0 l/m 1,8 km/h (1 Bft) N 5 2 min 0,000 mm 4,1 UV-I 827 W/m 9,2 C 14,8 C 4,8 km/h (1 Bft) 98,11 %
08.04.2017 13:56 14,9 C 69 % 1023,3 hPa 0,0 l/m 3,5 km/h (1 Bft) N-NO 22 2 min 0,000 mm 4,1 UV-I 841 W/m 9,3 C 14,9 C 8,0 km/h (2 Bft) 96,00 %
08.04.2017 13:58 15,1 C 66 % 1023,2 hPa 0,0 l/m 3,6 km/h (1 Bft) N-NO 32 2 min 0,000 mm 4,1 UV-I 852 W/m 8,8 C 15,1 C 6,4 km/h (2 Bft) 95,83 %
08.04.2017 14:00 15,2 C 66 % 1023,3 hPa 0,0 l/m 1,0 km/h (0 Bft) N-NO 32 2 min 0,406 mm 4,2 UV-I 874 W/m 8,9 C 15,2 C 4,8 km/h (1 Bft) 98,51 %
08.04.2017 14:02 15,3 C 63 % 1023,3 hPa 0,0 l/m 1,1 km/h (1 Bft) W 260 2 min 0,000 mm 4,1 UV-I 891 W/m 8,3 C 15,3 C 6,4 km/h (2 Bft) 97,87 %
08.04.2017 14:04 15,3 C 68 % 1023,3 hPa 0,0 l/m 4,9 km/h (1 Bft) NW 315 2 min 0,000 mm 4,0 UV-I 887 W/m 9,4 C 15,3 C 12,9 km/h (3 Bft) 92,00 %
08.04.2017 14:06 15,2 C 65 % 1023,2 hPa 0,0 l/m 4,0 km/h (1 Bft) N-NW 348 2 min 0,000 mm 3,0 UV-I 633 W/m 8,7 C 15,2 C 8,0 km/h (2 Bft) 97,44 %
08.04.2017 14:08 14,8 C 66 % 1023,3 hPa 0,0 l/m 1,5 km/h (1 Bft) N 349 0 min 0,000 mm 3,1 UV-I 348 W/m 8,5 C 14,8 C 4,8 km/h (1 Bft) 98,21 %
08.04.2017 14:10 14,6 C 68 % 1023,3 hPa 0,0 l/m 2,5 km/h (1 Bft) N 349 0 min 0,000 mm 2,5 UV-I 299 W/m 8,8 C 14,6 C 4,8 km/h (1 Bft) 97,37 %
08.04.2017 14:12 14,3 C 67 % 1023,3 hPa 0,0 l/m 1,3 km/h (1 Bft) N-NO 17 0 min 0,000 mm 2,4 UV-I 243 W/m 8,3 C 14,3 C 8,0 km/h (2 Bft) 97,92 %
08.04.2017 14:14 14,4 C 73 % 1023,2 hPa 0,0 l/m 7,9 km/h (2 Bft) N-NO 31 2 min 0,000 mm 3,7 UV-I 638 W/m 9,6 C 13,5 C 12,9 km/h (3 Bft) 98,00 %
08.04.2017 14:16 14,8 C 67 % 1023,2 hPa 0,0 l/m 2,5 km/h (1 Bft) N 350 2 min 0,000 mm 3,4 UV-I 827 W/m 8,7 C 14,8 C 4,8 km/h (1 Bft) 94,00 %
08.04.2017 14:18 14,8 C 69 % 1023,2 hPa 0,0 l/m 1,9 km/h (1 Bft) NW 304 2 min 0,000 mm 2,5 UV-I 439 W/m 9,2 C 14,8 C 4,8 km/h (1 Bft) 97,14 %
08.04.2017 14:20 14,7 C 64 % 1023,2 hPa 0,0 l/m 4,6 km/h (1 Bft) W-NW 302 0 min 0,000 mm 3,3 UV-I 258 W/m 8,0 C 14,7 C 8,0 km/h (2 Bft) 96,61 %
08.04.2017 14:22 14,6 C 64 % 1023,2 hPa 0,0 l/m 2,2 km/h (1 Bft) NW 312 2 min 0,000 mm 3,7 UV-I 693 W/m 7,9 C 14,6 C 4,8 km/h (1 Bft) 97,56 %
08.04.2017 14:24 14,8 C 69 % 1023,2 hPa 0,0 l/m 1,8 km/h (1 Bft) NW 316 2 min 0,000 mm 3,8 UV-I 798 W/m 9,2 C 14,8 C 4,8 km/h (1 Bft) 98,00 %
08.04.2017 14:26 14,8 C 62 % 1023,2 hPa 0,0 l/m 2,6 km/h (1 Bft) NW 305 2 min 0,000 mm 3,8 UV-I 801 W/m 7,6 C 14,8 C 4,8 km/h (1 Bft) 95,74 %
08.04.2017 14:28 14,9 C 65 % 1023,2 hPa 0,0 l/m 2,0 km/h (1 Bft) W-NW 302 2 min 0,000 mm 3,7 UV-I 800 W/m 8,4 C 14,9 C 6,4 km/h (2 Bft) 98,00 %
08.04.2017 14:30 15,0 C 64 % 1023,2 hPa 0,0 l/m 2,4 km/h (1 Bft) NW 319 2 min 0,000 mm 3,6 UV-I 765 W/m 8,2 C 15,0 C 4,8 km/h (1 Bft) 97,37 %
08.04.2017 14:32 14,9 C 63 % 1023,1 hPa 0,0 l/m 3,0 km/h (1 Bft) NW 306 2 min 0,000 mm 2,8 UV-I 747 W/m 7,9 C 14,9 C 4,8 km/h (1 Bft) 97,87 %
08.04.2017 14:34 14,7 C 63 % 1023,2 hPa 0,0 l/m 2,6 km/h (1 Bft) N-NW 327 0 min 0,000 mm 2,2 UV-I 251 W/m 7,7 C 14,7 C 6,4 km/h (2 Bft) 97,87 %
08.04.2017 14:36 14,4 C 65 % 1023,1 hPa 0,0 l/m 2,2 km/h (1 Bft) N-NW 344 0 min 0,000 mm 2,2 UV-I 156 W/m 7,9 C 14,4 C 6,4 km/h (2 Bft) 97,44 %
08.04.2017 14:38 14,2 C 70 % 1023,1 hPa 0,0 l/m 0,3 km/h (0 Bft) N-NW 344 0 min 0,000 mm 2,6 UV-I 196 W/m 8,8 C 14,2 C 1,6 km/h (1 Bft) 98,18 %
08.04.2017 14:40 14,3 C 66 % 1023,1 hPa 0,0 l/m 2,0 km/h (1 Bft) N-NW 346 2 min 0,000 mm 3,5 UV-I 703 W/m 8,0 C 14,3 C 4,8 km/h (1 Bft) 100,00 %
08.04.2017 14:42 14,6 C 65 % 1023,1 hPa 0,0 l/m 1,1 km/h (1 Bft) NO 42 2 min 0,000 mm 3,3 UV-I 774 W/m 8,1 C 14,6 C 3,2 km/h (1 Bft) 97,87 %
08.04.2017 14:44 14,6 C 64 % 1023,1 hPa 0,0 l/m 1,4 km/h (1 Bft) O 92 2 min 0,000 mm 3,3 UV-I 752 W/m 7,9 C 14,6 C 3,2 km/h (1 Bft) 100,00 %
08.04.2017 14:46 14,7 C 64 % 1023,0 hPa 0,0 l/m 2,2 km/h (1 Bft) O 92 2 min 0,000 mm 3,3 UV-I 741 W/m 8,0 C 14,7 C 4,8 km/h (1 Bft) 100,00 %
08.04.2017 14:48 14,8 C 63 % 1023,0 hPa 0,0 l/m 4,7 km/h (1 Bft) O 90 2 min 0,000 mm 3,4 UV-I 769 W/m 7,8 C 14,8 C 6,4 km/h (2 Bft) 100,00 %
08.04.2017 14:50 15,0 C 65 % 1023,0 hPa 0,0 l/m 3,2 km/h (1 Bft) O-NO 69 2 min 0,000 mm 3,4 UV-I 751 W/m 8,5 C 15,0 C 6,4 km/h (2 Bft) 100,00 %
08.04.2017 14:52 15,2 C 64 % 1022,9 hPa 0,0 l/m 4,4 km/h (1 Bft) NO 43 2 min 0,000 mm 3,3 UV-I 746 W/m 8,4 C 15,2 C 6,4 km/h (2 Bft) 96,15 %
08.04.2017 14:54 15,3 C 64 % 1022,9 hPa 0,0 l/m 4,4 km/h (1 Bft) O-SO 115 2 min 0,000 mm 3,2 UV-I 730 W/m 8,5 C 15,3 C 6,4 km/h (2 Bft) 100,00 %
08.04.2017 14:56 15,4 C 62 % 1022,9 hPa 0,0 l/m 2,3 km/h (1 Bft) S-SO 162 2 min 0,000 mm 3,2 UV-I 720 W/m 8,2 C 15,4 C 8,0 km/h (2 Bft) 100,00 %
08.04.2017 14:58 15,3 C 63 % 1022,8 hPa 0,0 l/m 3,4 km/h (1 Bft) SO 143 2 min 0,000 mm 3,2 UV-I 758 W/m 8,3 C 15,3 C 8,0 km/h (2 Bft) 100,00 %
08.04.2017 15:00 15,3 C 62 % 1022,8 hPa 0,0 l/m 7,8 km/h (2 Bft) SO 126 2 min 0,330 mm 3,1 UV-I 763 W/m 8,1 C 14,5 C 12,9 km/h (3 Bft) 100,00 %
08.04.2017 15:02 15,4 C 63 % 1022,8 hPa 0,0 l/m 6,1 km/h (2 Bft) SO 136 2 min 0,000 mm 2,7 UV-I 708 W/m 8,4 C 15,4 C 9,7 km/h (2 Bft) 100,00 %
08.04.2017 15:04 15,3 C 62 % 1022,8 hPa 0,0 l/m 1,7 km/h (1 Bft) SO 136 0 min 0,000 mm 2,2 UV-I 319 W/m 8,1 C 15,3 C 4,8 km/h (1 Bft) 100,00 %
08.04.2017 15:06 15,2 C 63 % 1022,8 hPa 0,0 l/m 1,3 km/h (1 Bft) SO 131 0 min 0,000 mm 2,4 UV-I 356 W/m 8,2 C 15,2 C 4,8 km/h (1 Bft) 100,00 %
08.04.2017 15:08 15,3 C 67 % 1022,8 hPa 0,0 l/m 3,1 km/h (1 Bft) N-NW 328 2 min 0,000 mm 3,0 UV-I 657 W/m 9,2 C 15,3 C 4,8 km/h (1 Bft) 97,37 %
08.04.2017 15:10 15,6 C 64 % 1022,8 hPa 0,0 l/m 1,7 km/h (1 Bft) NW 313 2 min 0,000 mm 3,0 UV-I 742 W/m 8,8 C 15,6 C 4,8 km/h (1 Bft) 98,21 %
08.04.2017 15:12 15,6 C 60 % 1022,8 hPa 0,0 l/m 0,8 km/h (0 Bft) W-NW 301 2 min 0,000 mm 2,9 UV-I 793 W/m 7,9 C 15,6 C 3,2 km/h (1 Bft) 97,37 %
08.04.2017 15:14 15,6 C 61 % 1022,7 hPa 0,0 l/m 4,1 km/h (1 Bft) W 264 2 min 0,000 mm 2,9 UV-I 804 W/m 8,1 C 15,6 C 11,3 km/h (2 Bft) 94,34 %
08.04.2017 15:16 15,9 C 62 % 1022,7 hPa 0,0 l/m 5,0 km/h (1 Bft) W-NW 296 2 min 0,000 mm 2,8 UV-I 809 W/m 8,6 C 15,9 C 9,7 km/h (2 Bft) 97,44 %
08.04.2017 15:18 16,0 C 60 % 1022,7 hPa 0,0 l/m 3,8 km/h (1 Bft) NW 311 2 min 0,000 mm 2,6 UV-I 786 W/m 8,2 C 16,0 C 6,4 km/h (2 Bft) 96,36 %
08.04.2017 15:20 15,8 C 59 % 1022,7 hPa 0,0 l/m 2,3 km/h (1 Bft) W 277 2 min 0,000 mm 2,8 UV-I 718 W/m 7,8 C 15,8 C 4,8 km/h (1 Bft) 100,00 %
08.04.2017 15:22 15,6 C 60 % 1022,7 hPa 0,0 l/m 2,0 km/h (1 Bft) S-SW 209 2 min 0,000 mm 2,6 UV-I 652 W/m 7,9 C 15,6 C 4,8 km/h (1 Bft) 94,12 %
08.04.2017 15:24 15,6 C 64 % 1022,7 hPa 0,0 l/m 1,5 km/h (1 Bft) W 275 2 min 0,000 mm 2,3 UV-I 431 W/m 8,8 C 15,6 C 6,4 km/h (2 Bft) 98,00 %
08.04.2017 15:26 15,5 C 62 % 1022,7 hPa 0,0 l/m 0,9 km/h (0 Bft) W 277 2 min 0,000 mm 2,1 UV-I 465 W/m 8,3 C 15,5 C 6,4 km/h (2 Bft) 97,87 %
08.04.2017 15:28 15,4 C 65 % 1022,7 hPa 0,0 l/m 0,3 km/h (0 Bft) W-NW 299 2 min 0,000 mm 2,0 UV-I 372 W/m 8,9 C 15,4 C 1,6 km/h (1 Bft) 97,87 %
08.04.2017 15:30 15,4 C 63 % 1022,7 hPa 0,0 l/m 2,7 km/h (1 Bft) N 9 0 min 0,000 mm 2,0 UV-I 304 W/m 8,4 C 15,4 C 6,4 km/h (2 Bft) 97,37 %
08.04.2017 15:32 15,5 C 68 % 1022,7 hPa 0,0 l/m 1,4 km/h (1 Bft) N 9 2 min 0,000 mm 1,9 UV-I 459 W/m 9,6 C 15,5 C 3,2 km/h (1 Bft) 98,11 %
08.04.2017 15:34 15,4 C 67 % 1022,7 hPa 0,0 l/m 0,2 km/h (0 Bft) N 9 2 min 0,000 mm 1,8 UV-I 366 W/m 9,3 C 15,4 C 1,6 km/h (1 Bft) 97,56 %
08.04.2017 15:36 15,4 C 63 % 1022,7 hPa 0,0 l/m 0,7 km/h (0 Bft) N 9 2 min 0,000 mm 1,8 UV-I 427 W/m 8,4 C 15,4 C 3,2 km/h (1 Bft) 96,00 %
08.04.2017 15:38 15,4 C 64 % 1022,7 hPa 0,0 l/m 0,3 km/h (0 Bft) N 9 2 min 0,000 mm 1,8 UV-I 394 W/m 8,6 C 15,4 C 1,6 km/h (1 Bft) 98,00 %
08.04.2017 15:40 15,6 C 61 % 1022,7 hPa 0,0 l/m 2,7 km/h (1 Bft) W-NW 293 2 min 0,000 mm 1,7 UV-I 407 W/m 8,1 C 15,6 C 4,8 km/h (1 Bft) 98,00 %
08.04.2017 15:42 15,4 C 61 % 1022,7 hPa 0,0 l/m 2,3 km/h (1 Bft) SW 219 2 min 0,000 mm 1,6 UV-I 428 W/m 7,9 C 15,4 C 6,4 km/h (2 Bft) 100,00 %
08.04.2017 15:44 15,5 C 62 % 1022,6 hPa 0,0 l/m 6,7 km/h (2 Bft) SW 227 2 min 0,000 mm 1,6 UV-I 358 W/m 8,3 C 15,3 C 11,3 km/h (2 Bft) 100,00 %
08.04.2017 15:46 15,5 C 60 % 1022,6 hPa 0,0 l/m 4,7 km/h (1 Bft) S 178 2 min 0,000 mm 2,1 UV-I 352 W/m 7,8 C 15,5 C 9,7 km/h (2 Bft) 100,00 %
08.04.2017 15:48 15,6 C 60 % 1022,6 hPa 0,0 l/m 6,9 km/h (2 Bft) S-SW 208 2 min 0,000 mm 2,0 UV-I 352 W/m 7,9 C 15,3 C 9,7 km/h (2 Bft) 95,12 %
08.04.2017 15:50 15,8 C 61 % 1022,6 hPa 0,0 l/m 3,4 km/h (1 Bft) S-SW 199 2 min 0,000 mm 2,1 UV-I 613 W/m 8,3 C 15,8 C 6,4 km/h (2 Bft) 100,00 %
08.04.2017 15:52 15,8 C 58 % 1022,6 hPa 0,0 l/m 2,3 km/h (1 Bft) S-SO 161 2 min 0,000 mm 1,8 UV-I 650 W/m 7,6 C 15,8 C 6,4 km/h (2 Bft) 100,00 %
08.04.2017 15:54 15,8 C 59 % 1022,5 hPa 0,0 l/m 4,0 km/h (1 Bft) O 92 2 min 0,000 mm 2,0 UV-I 638 W/m 7,8 C 15,8 C 6,4 km/h (2 Bft) 100,00 %
08.04.2017 15:56 15,9 C 61 % 1022,5 hPa 0,0 l/m 2,7 km/h (1 Bft) SW 221 2 min 0,000 mm 2,1 UV-I 608 W/m 8,4 C 15,9 C 6,4 km/h (2 Bft) 100,00 %
08.04.2017 15:58 16,0 C 61 % 1022,5 hPa 0,0 l/m 7,7 km/h (2 Bft) W-SW 250 2 min 0,000 mm 1,9 UV-I 599 W/m 8,5 C 15,3 C 16,1 km/h (3 Bft) 100,00 %
08.04.2017 16:00 16,1 C 59 % 1022,5 hPa 0,0 l/m 4,9 km/h (1 Bft) SW 223 2 min 0,305 mm 1,8 UV-I 419 W/m 8,1 C 16,1 C 8,0 km/h (2 Bft) 100,00 %
08.04.2017 16:02 15,9 C 62 % 1022,4 hPa 0,0 l/m 5,1 km/h (1 Bft) W 260 2 min 0,000 mm 1,8 UV-I 459 W/m 8,6 C 15,9 C 11,3 km/h (2 Bft) 100,00 %
08.04.2017 16:04 16,1 C 59 % 1022,5 hPa 0,0 l/m 8,7 km/h (2 Bft) SW 221 2 min 0,000 mm 1,8 UV-I 468 W/m 8,1 C 14,9 C 11,3 km/h (2 Bft) 100,00 %
08.04.2017 16:06 16,3 C 59 % 1022,4 hPa 0,0 l/m 6,1 km/h (2 Bft) W-SW 250 2 min 0,000 mm 1,8 UV-I 522 W/m 8,3 C 16,3 C 8,0 km/h (2 Bft) 100,00 %
08.04.2017 16:08 16,2 C 57 % 1022,4 hPa 0,0 l/m 5,0 km/h (1 Bft) SW 236 2 min 0,000 mm 1,8 UV-I 520 W/m 7,7 C 16,2 C 8,0 km/h (2 Bft) 100,00 %
08.04.2017 16:10 16,1 C 60 % 1022,4 hPa 0,0 l/m 3,6 km/h (1 Bft) S-SO 157 2 min 0,000 mm 1,6 UV-I 494 W/m 8,3 C 16,1 C 8,0 km/h (2 Bft) 100,00 %
08.04.2017 16:12 15,9 C 59 % 1022,4 hPa 0,0 l/m 6,2 km/h (2 Bft) S-SW 204 2 min 0,000 mm 1,5 UV-I 489 W/m 7,9 C 15,9 C 9,7 km/h (2 Bft) 100,00 %
08.04.2017 16:14 15,9 C 60 % 1022,4 hPa 0,0 l/m 10,9 km/h (2 Bft) SW 225 2 min 0,000 mm 1,3 UV-I 326 W/m 8,1 C 13,7 C 14,5 km/h (3 Bft) 100,00 %
08.04.2017 16:16 16,0 C 60 % 1022,3 hPa 0,0 l/m 8,0 km/h (2 Bft) W-SW 241 2 min 0,000 mm 1,4 UV-I 405 W/m 8,2 C 15,2 C 11,3 km/h (2 Bft) 100,00 %
08.04.2017 16:18 15,9 C 60 % 1022,3 hPa 0,0 l/m 8,4 km/h (2 Bft) SW 225 2 min 0,000 mm 1,4 UV-I 363 W/m 8,1 C 14,8 C 12,9 km/h (3 Bft) 94,29 %
08.04.2017 16:20 16,0 C 59 % 1022,3 hPa 0,0 l/m 7,8 km/h (2 Bft) SW 235 2 min 0,000 mm 1,3 UV-I 345 W/m 8,0 C 15,3 C 12,9 km/h (3 Bft) 100,00 %
08.04.2017 16:22 16,1 C 59 % 1022,3 hPa 0,0 l/m 10,4 km/h (2 Bft) W-SW 242 2 min 0,000 mm 1,4 UV-I 365 W/m 8,1 C 14,2 C 14,5 km/h (3 Bft) 100,00 %
08.04.2017 16:24 16,0 C 58 % 1022,2 hPa 0,0 l/m 7,2 km/h (2 Bft) W-SW 238 2 min 0,000 mm 1,4 UV-I 379 W/m 7,7 C 15,6 C 12,9 km/h (3 Bft) 97,92 %
08.04.2017 16:26 16,1 C 58 % 1022,2 hPa 0,0 l/m 7,9 km/h (2 Bft) W-SW 240 2 min 0,000 mm 1,4 UV-I 389 W/m 7,8 C 15,3 C 11,3 km/h (2 Bft) 100,00 %
08.04.2017 16:28 16,0 C 58 % 1022,2 hPa 0,0 l/m 5,9 km/h (2 Bft) W 260 2 min 0,000 mm 1,3 UV-I 373 W/m 7,7 C 16,0 C 9,7 km/h (2 Bft) 100,00 %
08.04.2017 16:30 16,0 C 59 % 1022,2 hPa 0,0 l/m 6,1 km/h (2 Bft) W 269 2 min 0,000 mm 1,3 UV-I 346 W/m 8,0 C 16,0 C 12,9 km/h (3 Bft) 100,00 %
08.04.2017 16:32 16,0 C 59 % 1022,2 hPa 0,0 l/m 8,3 km/h (2 Bft) SW 232 2 min 0,000 mm 1,3 UV-I 323 W/m 8,0 C 15,0 C 14,5 km/h (3 Bft) 95,12 %
08.04.2017 16:34 15,9 C 57 % 1022,2 hPa 0,0 l/m 6,3 km/h (2 Bft) S-SW 202 2 min 0,000 mm 1,2 UV-I 307 W/m 7,4 C 15,9 C 9,7 km/h (2 Bft) 98,00 %
08.04.2017 16:36 15,9 C 58 % 1022,1 hPa 0,0 l/m 8,2 km/h (2 Bft) S-SW 211 2 min 0,000 mm 1,2 UV-I 303 W/m 7,6 C 14,9 C 11,3 km/h (2 Bft) 100,00 %
08.04.2017 16:38 15,9 C 59 % 1022,1 hPa 0,0 l/m 7,7 km/h (2 Bft) SW 225 2 min 0,000 mm 1,2 UV-I 294 W/m 7,9 C 15,2 C 12,9 km/h (3 Bft) 100,00 %
08.04.2017 16:40 16,0 C 59 % 1022,1 hPa 0,0 l/m 6,8 km/h (2 Bft) SW 218 2 min 0,000 mm 1,2 UV-I 291 W/m 8,0 C 15,8 C 9,7 km/h (2 Bft) 100,00 %
08.04.2017 16:42 16,0 C 59 % 1022,1 hPa 0,0 l/m 8,5 km/h (2 Bft) S 190 0 min 0,000 mm 1,1 UV-I 260 W/m 8,0 C 14,9 C 14,5 km/h (3 Bft) 100,00 %
08.04.2017 16:44 15,9 C 58 % 1022,2 hPa 0,0 l/m 10,4 km/h (2 Bft) S-SW 212 0 min 0,000 mm 1,1 UV-I 253 W/m 7,6 C 13,9 C 14,5 km/h (3 Bft) 100,00 %
08.04.2017 16:46 15,7 C 58 % 1022,2 hPa 0,0 l/m 6,3 km/h (2 Bft) S 176 2 min 0,000 mm 1,1 UV-I 263 W/m 7,5 C 15,7 C 9,7 km/h (2 Bft) 97,87 %
08.04.2017 16:48 15,6 C 61 % 1022,1 hPa 0,0 l/m 6,2 km/h (2 Bft) SW 217 2 min 0,000 mm 1,0 UV-I 267 W/m 8,1 C 15,6 C 9,7 km/h (2 Bft) 100,00 %
08.04.2017 16:50 15,6 C 61 % 1022,1 hPa 0,0 l/m 4,0 km/h (1 Bft) SW 217 2 min 0,000 mm 1,1 UV-I 286 W/m 8,1 C 15,6 C 8,0 km/h (2 Bft) 100,00 %
08.04.2017 16:52 15,6 C 60 % 1022,1 hPa 0,0 l/m 5,9 km/h (2 Bft) SW 232 2 min 0,000 mm 1,1 UV-I 333 W/m 7,9 C 15,6 C 9,7 km/h (2 Bft) 100,00 %
08.04.2017 16:54 15,7 C 61 % 1022,2 hPa 0,0 l/m 7,1 km/h (2 Bft) W-SW 237 2 min 0,000 mm 1,1 UV-I 362 W/m 8,2 C 15,3 C 11,3 km/h (2 Bft) 100,00 %
08.04.2017 16:56 15,9 C 59 % 1022,2 hPa 0,0 l/m 8,7 km/h (2 Bft) SW 224 2 min 0,000 mm 1,1 UV-I 412 W/m 7,9 C 14,7 C 12,9 km/h (3 Bft) 97,87 %
08.04.2017 16:58 16,0 C 59 % 1022,2 hPa 0,0 l/m 5,7 km/h (1 Bft) S-SW 212 2 min 0,000 mm 1,1 UV-I 418 W/m 8,0 C 16,0 C 8,0 km/h (2 Bft) 100,00 %
08.04.2017 17:00 16,0 C 59 % 1022,1 hPa 0,0 l/m 3,8 km/h (1 Bft) W-SW 251 2 min 0,229 mm 1,2 UV-I 427 W/m 8,0 C 16,0 C 6,4 km/h (2 Bft) 98,11 %
08.04.2017 17:02 16,2 C 59 % 1022,2 hPa 0,0 l/m 9,1 km/h (2 Bft) W 259 2 min 0,000 mm 1,1 UV-I 503 W/m 8,2 C 14,8 C 14,5 km/h (3 Bft) 97,87 %
08.04.2017 17:04 16,2 C 58 % 1022,1 hPa 0,0 l/m 7,3 km/h (2 Bft) W-SW 242 2 min 0,000 mm 1,1 UV-I 472 W/m 7,9 C 15,7 C 14,5 km/h (3 Bft) 100,00 %
08.04.2017 17:06 16,3 C 58 % 1022,1 hPa 0,0 l/m 7,2 km/h (2 Bft) W-SW 242 2 min 0,000 mm 1,0 UV-I 460 W/m 8,0 C 15,9 C 12,9 km/h (3 Bft) 96,00 %
08.04.2017 17:08 16,4 C 58 % 1022,1 hPa 0,0 l/m 7,0 km/h (2 Bft) W 269 2 min 0,000 mm 1,0 UV-I 459 W/m 8,1 C 16,1 C 11,3 km/h (2 Bft) 97,87 %
08.04.2017 17:10 16,6 C 57 % 1022,1 hPa 0,0 l/m 5,2 km/h (1 Bft) S-SW 211 2 min 0,000 mm 0,9 UV-I 452 W/m 8,0 C 16,6 C 9,7 km/h (2 Bft) 95,12 %
08.04.2017 17:12 16,4 C 58 % 1022,1 hPa 0,0 l/m 3,8 km/h (1 Bft) SW 219 2 min 0,000 mm 0,8 UV-I 331 W/m 8,1 C 16,4 C 8,0 km/h (2 Bft) 97,44 %
08.04.2017 17:14 16,3 C 60 % 1022,1 hPa 0,0 l/m 6,0 km/h (2 Bft) SW 236 2 min 0,000 mm 0,8 UV-I 263 W/m 8,5 C 16,3 C 9,7 km/h (2 Bft) 96,36 %
08.04.2017 17:16 16,4 C 57 % 1022,1 hPa 0,0 l/m 3,5 km/h (1 Bft) W 273 2 min 0,000 mm 0,8 UV-I 346 W/m 7,9 C 16,4 C 4,8 km/h (1 Bft) 97,44 %
08.04.2017 17:18 16,3 C 59 % 1022,1 hPa 0,0 l/m 5,4 km/h (1 Bft) S-SO 168 2 min 0,000 mm 0,8 UV-I 269 W/m 8,3 C 16,3 C 9,7 km/h (2 Bft) 98,00 %
08.04.2017 17:20 16,1 C 60 % 1022,1 hPa 0,0 l/m 5,0 km/h (1 Bft) SW 220 2 min 0,000 mm 0,8 UV-I 317 W/m 8,3 C 16,1 C 11,3 km/h (2 Bft) 96,00 %
08.04.2017 17:22 16,2 C 60 % 1022,1 hPa 0,0 l/m 7,6 km/h (2 Bft) S 186 2 min 0,000 mm 0,8 UV-I 365 W/m 8,4 C 15,6 C 9,7 km/h (2 Bft) 98,00 %
08.04.2017 17:24 16,1 C 59 % 1022,0 hPa 0,0 l/m 5,4 km/h (1 Bft) W-NW 288 2 min 0,000 mm 0,8 UV-I 347 W/m 8,1 C 16,1 C 9,7 km/h (2 Bft) 97,87 %
08.04.2017 17:26 16,2 C 61 % 1022,0 hPa 0,0 l/m 5,5 km/h (1 Bft) S-SW 204 2 min 0,000 mm 0,8 UV-I 354 W/m 8,7 C 16,2 C 9,7 km/h (2 Bft) 96,15 %
08.04.2017 17:28 16,2 C 60 % 1022,1 hPa 0,0 l/m 2,8 km/h (1 Bft) S 177 2 min 0,000 mm 0,8 UV-I 324 W/m 8,4 C 16,2 C 6,4 km/h (2 Bft) 95,59 %
08.04.2017 17:30 16,0 C 60 % 1022,1 hPa 0,0 l/m 4,4 km/h (1 Bft) W-SW 242 2 min 0,000 mm 0,7 UV-I 298 W/m 8,2 C 16,0 C 6,4 km/h (2 Bft) 97,56 %
08.04.2017 17:32 16,1 C 60 % 1022,1 hPa 0,0 l/m 7,6 km/h (2 Bft) S-SW 213 2 min 0,000 mm 0,7 UV-I 314 W/m 8,3 C 15,5 C 12,9 km/h (3 Bft) 98,11 %
08.04.2017 17:34 16,2 C 60 % 1022,1 hPa 0,0 l/m 3,5 km/h (1 Bft) S-SW 209 2 min 0,000 mm 0,7 UV-I 344 W/m 8,4 C 16,2 C 9,7 km/h (2 Bft) 97,73 %
08.04.2017 17:36 16,3 C 59 % 1022,0 hPa 0,0 l/m 6,2 km/h (2 Bft) W-SW 252 2 min 0,000 mm 0,7 UV-I 337 W/m 8,3 C 16,3 C 9,7 km/h (2 Bft) 96,23 %
08.04.2017 17:38 16,4 C 60 % 1022,0 hPa 0,0 l/m 4,6 km/h (1 Bft) S-SW 210 2 min 0,000 mm 0,7 UV-I 335 W/m 8,6 C 16,4 C 8,0 km/h (2 Bft) 100,00 %
08.04.2017 17:40 16,3 C 59 % 1022,0 hPa 0,0 l/m 5,2 km/h (1 Bft) S 190 2 min 0,000 mm 0,6 UV-I 332 W/m 8,3 C 16,3 C 8,0 km/h (2 Bft) 95,74 %
08.04.2017 17:42 16,2 C 60 % 1022,0 hPa 0,0 l/m 5,7 km/h (1 Bft) W-SW 239 2 min 0,000 mm 0,6 UV-I 197 W/m 8,4 C 16,2 C 11,3 km/h (2 Bft) 100,00 %
08.04.2017 17:44 16,2 C 60 % 1021,9 hPa 0,0 l/m 7,7 km/h (2 Bft) S-SW 210 2 min 0,000 mm 0,6 UV-I 295 W/m 8,4 C 15,5 C 12,9 km/h (3 Bft) 100,00 %
08.04.2017 17:46 16,3 C 61 % 1021,9 hPa 0,0 l/m 6,0 km/h (2 Bft) S-SW 207 2 min 0,000 mm 0,6 UV-I 303 W/m 8,8 C 16,3 C 9,7 km/h (2 Bft) 100,00 %
08.04.2017 17:48 16,3 C 62 % 1021,9 hPa 0,0 l/m 3,5 km/h (1 Bft) S-SW 212 2 min 0,000 mm 0,6 UV-I 302 W/m 9,0 C 16,3 C 6,4 km/h (2 Bft) 98,11 %
08.04.2017 17:50 16,3 C 61 % 1021,9 hPa 0,0 l/m 6,7 km/h (2 Bft) SW 220 2 min 0,000 mm 0,5 UV-I 292 W/m 8,8 C 16,2 C 9,7 km/h (2 Bft) 100,00 %
08.04.2017 17:52 16,3 C 59 % 1021,9 hPa 0,0 l/m 4,4 km/h (1 Bft) S-SW 206 2 min 0,000 mm 0,5 UV-I 298 W/m 8,3 C 16,3 C 8,0 km/h (2 Bft) 97,87 %
08.04.2017 17:54 16,2 C 60 % 1021,9 hPa 0,0 l/m 4,5 km/h (1 Bft) SW 222 2 min 0,000 mm 0,5 UV-I 264 W/m 8,4 C 16,2 C 9,7 km/h (2 Bft) 100,00 %
08.04.2017 17:56 16,3 C 59 % 1021,8 hPa 0,0 l/m 3,8 km/h (1 Bft) W 267 2 min 0,000 mm 0,5 UV-I 230 W/m 8,3 C 16,3 C 6,4 km/h (2 Bft) 100,00 %
08.04.2017 17:58 16,2 C 58 % 1021,8 hPa 0,0 l/m 3,8 km/h (1 Bft) W 280 2 min 0,000 mm 0,3 UV-I 268 W/m 7,9 C 16,2 C 6,4 km/h (2 Bft) 100,00 %
08.04.2017 18:00 16,2 C 58 % 1021,8 hPa 0,0 l/m 2,3 km/h (1 Bft) W-SW 238 2 min 0,000 mm 0,0 UV-I 269 W/m 7,9 C 16,2 C 4,8 km/h (1 Bft) 100,00 %
08.04.2017 18:02 16,2 C 60 % 1021,8 hPa 0,0 l/m 2,8 km/h (1 Bft) W 265 2 min 0,203 mm 0,0 UV-I 248 W/m 8,4 C 16,2 C 4,8 km/h (1 Bft) 97,87 %
08.04.2017 18:04 16,2 C 59 % 1021,8 hPa 0,0 l/m 1,8 km/h (1 Bft) W 265 2 min 0,000 mm 0,0 UV-I 223 W/m 8,2 C 16,2 C 3,2 km/h (1 Bft) 100,00 %
08.04.2017 18:06 16,2 C 58 % 1021,8 hPa 0,0 l/m 2,5 km/h (1 Bft) W-SW 257 2 min 0,000 mm 0,0 UV-I 216 W/m 7,9 C 16,2 C 4,8 km/h (1 Bft) 100,00 %
08.04.2017 18:08 16,1 C 60 % 1021,8 hPa 0,0 l/m 3,2 km/h (1 Bft) W-SW 255 2 min 0,000 mm 0,0 UV-I 210 W/m 8,3 C 16,1 C 6,4 km/h (2 Bft) 100,00 %
08.04.2017 18:10 16,1 C 60 % 1021,9 hPa 0,0 l/m 1,2 km/h (1 Bft) W-SW 255 2 min 0,000 mm 0,0 UV-I 214 W/m 8,3 C 16,1 C 4,8 km/h (1 Bft) 98,00 %
08.04.2017 18:12 15,9 C 59 % 1021,8 hPa 0,0 l/m 0,5 km/h (0 Bft) W-SW 255 2 min 0,000 mm 0,0 UV-I 218 W/m 7,9 C 15,9 C 3,2 km/h (1 Bft) 100,00 %
08.04.2017 18:14 15,8 C 60 % 1021,8 hPa 0,0 l/m 1,6 km/h (1 Bft) W-SW 255 2 min 0,000 mm 0,0 UV-I 200 W/m 8,1 C 15,8 C 3,2 km/h (1 Bft) 100,00 %
08.04.2017 18:16 16,0 C 62 % 1021,8 hPa 0,0 l/m 0,3 km/h (0 Bft) W-SW 255 2 min 0,000 mm 0,0 UV-I 189 W/m 8,7 C 16,0 C 1,6 km/h (1 Bft) 100,00 %
08.04.2017 18:18 16,0 C 61 % 1021,9 hPa 0,0 l/m 0,3 km/h (0 Bft) W-SW 255 2 min 0,000 mm 0,0 UV-I 183 W/m 8,5 C 16,0 C 1,6 km/h (1 Bft) 98,00 %
08.04.2017 18:20 15,9 C 63 % 1021,9 hPa 0,0 l/m 0,3 km/h (0 Bft) W-SW 255 2 min 0,000 mm 0,0 UV-I 169 W/m 8,9 C 15,9 C 1,6 km/h (1 Bft) 100,00 %
08.04.2017 18:22 15,9 C 62 % 1021,9 hPa 0,0 l/m 0,4 km/h (0 Bft) W-SW 255 0 min 0,000 mm 0,0 UV-I 106 W/m 8,6 C 15,9 C 3,2 km/h (1 Bft) 100,00 %
08.04.2017 18:24 15,7 C 63 % 1021,9 hPa 0,0 l/m 1,0 km/h (0 Bft) W-SW 256 0 min 0,000 mm 0,0 UV-I 103 W/m 8,7 C 15,7 C 4,8 km/h (1 Bft) 100,00 %
08.04.2017 18:26 15,7 C 61 % 1021,8 hPa 0,0 l/m 1,0 km/h (0 Bft) W-SW 257 2 min 0,000 mm 0,0 UV-I 124 W/m 8,2 C 15,7 C 3,2 km/h (1 Bft) 96,23 %
08.04.2017 18:28 15,7 C 62 % 1021,9 hPa 0,0 l/m 0,0 km/h (0 Bft) W-SW 256 2 min 0,000 mm 0,0 UV-I 143 W/m 8,4 C 15,7 C 1,6 km/h (1 Bft) 100,00 %
08.04.2017 18:30 15,7 C 65 % 1021,8 hPa 0,0 l/m 0,0 km/h (0 Bft) W-SW 256 2 min 0,000 mm 0,0 UV-I 148 W/m 9,1 C 15,7 C 0,0 km/h (0 Bft) 100,00 %
08.04.2017 18:32 15,8 C 61 % 1021,8 hPa 0,0 l/m 0,0 km/h (0 Bft) W-SW 256 2 min 0,000 mm 0,0 UV-I 145 W/m 8,3 C 15,8 C 0,0 km/h (0 Bft) 100,00 %
08.04.2017 18:34 15,9 C 61 % 1021,8 hPa 0,0 l/m 1,4 km/h (1 Bft) N-NW 347 2 min 0,000 mm 0,0 UV-I 139 W/m 8,4 C 15,9 C 4,8 km/h (1 Bft) 100,00 %
08.04.2017 18:36 15,8 C 61 % 1021,8 hPa 0,0 l/m 2,3 km/h (1 Bft) N 9 2 min 0,000 mm 0,0 UV-I 134 W/m 8,3 C 15,8 C 6,4 km/h (2 Bft) 100,00 %
08.04.2017 18:38 15,8 C 60 % 1021,8 hPa 0,0 l/m 0,5 km/h (0 Bft) N 9 2 min 0,000 mm 0,0 UV-I 128 W/m 8,1 C 15,8 C 3,2 km/h (1 Bft) 100,00 %
08.04.2017 18:40 15,8 C 60 % 1021,7 hPa 0,0 l/m 0,7 km/h (0 Bft) N 9 2 min 0,000 mm 0,0 UV-I 113 W/m 8,1 C 15,8 C 1,6 km/h (1 Bft) 98,46 %
08.04.2017 18:42 15,8 C 60 % 1021,7 hPa 0,0 l/m 0,0 km/h (0 Bft) N 9 2 min 0,000 mm 0,0 UV-I 97 W/m 8,1 C 15,8 C 1,6 km/h (1 Bft) 100,00 %
08.04.2017 18:44 15,8 C 61 % 1021,7 hPa 0,0 l/m 2,3 km/h (1 Bft) N 5 0 min 0,000 mm 0,0 UV-I 81 W/m 8,3 C 15,8 C 4,8 km/h (1 Bft) 97,56 %
08.04.2017 18:46 15,6 C 64 % 1021,7 hPa 0,0 l/m 2,3 km/h (1 Bft) N 5 0 min 0,000 mm 0,0 UV-I 69 W/m 8,8 C 15,6 C 4,8 km/h (1 Bft) 100,00 %
08.04.2017 18:49 15,3 C 64 % 1021,7 hPa 0,0 l/m 3,2 km/h (1 Bft) NO 53 0 min 0,000 mm 0,0 UV-I 71 W/m 8,5 C 15,3 C 4,8 km/h (1 Bft) 98,78 %
08.04.2017 18:50 15,3 C 65 % 1021,7 hPa 0,0 l/m 2,5 km/h (1 Bft) NO 53 0 min 0,000 mm 0,0 UV-I 74 W/m 8,8 C 15,3 C 4,8 km/h (1 Bft) 100,00 %
08.04.2017 18:52 15,2 C 65 % 1021,7 hPa 0,0 l/m 2,5 km/h (1 Bft) NO 53 2 min 0,000 mm 0,0 UV-I 77 W/m 8,7 C 15,2 C 4,8 km/h (1 Bft) 100,00 %
08.04.2017 18:54 15,0 C 66 % 1021,7 hPa 0,0 l/m 0,9 km/h (0 Bft) NO 53 2 min 0,000 mm 0,0 UV-I 81 W/m 8,7 C 15,0 C 1,6 km/h (1 Bft) 100,00 %
08.04.2017 18:56 14,9 C 68 % 1021,7 hPa 0,0 l/m 1,5 km/h (1 Bft) NO 53 2 min 0,000 mm 0,0 UV-I 71 W/m 9,0 C 14,9 C 3,2 km/h (1 Bft) 100,00 %
08.04.2017 18:58 14,7 C 69 % 1021,7 hPa 0,0 l/m 4,1 km/h (1 Bft) O 83 0 min 0,000 mm 0,0 UV-I 57 W/m 9,1 C 14,7 C 6,4 km/h (2 Bft) 100,00 %
08.04.2017 19:00 14,6 C 68 % 1021,7 hPa 0,0 l/m 3,7 km/h (1 Bft) O 83 0 min 0,076 mm 0,0 UV-I 43 W/m 8,8 C 14,6 C 4,8 km/h (1 Bft) 97,87 %
08.04.2017 19:02 14,6 C 69 % 1021,7 hPa 0,0 l/m 3,1 km/h (1 Bft) O 83 0 min 0,000 mm 0,0 UV-I 38 W/m 9,0 C 14,6 C 4,8 km/h (1 Bft) 100,00 %
08.04.2017 19:04 14,5 C 72 % 1021,7 hPa 0,0 l/m 2,3 km/h (1 Bft) O 83 0 min 0,000 mm 0,0 UV-I 41 W/m 9,5 C 14,5 C 4,8 km/h (1 Bft) 98,00 %
08.04.2017 19:06 14,3 C 72 % 1021,7 hPa 0,0 l/m 2,0 km/h (1 Bft) O 83 0 min 0,000 mm 0,0 UV-I 43 W/m 9,3 C 14,3 C 3,2 km/h (1 Bft) 98,00 %
08.04.2017 19:08 14,3 C 69 % 1021,7 hPa 0,0 l/m 2,2 km/h (1 Bft) O 83 0 min 0,000 mm 0,0 UV-I 42 W/m 8,7 C 14,3 C 3,2 km/h (1 Bft) 97,37 %
08.04.2017 19:10 14,3 C 69 % 1021,7 hPa 0,0 l/m 5,1 km/h (1 Bft) NO 43 0 min 0,000 mm 0,0 UV-I 39 W/m 8,7 C 14,3 C 8,0 km/h (2 Bft) 98,00 %
08.04.2017 19:12 14,3 C 68 % 1021,7 hPa 0,0 l/m 5,6 km/h (1 Bft) NO 48 0 min 0,000 mm 0,0 UV-I 40 W/m 8,5 C 14,3 C 8,0 km/h (2 Bft) 98,00 %
08.04.2017 19:14 14,3 C 69 % 1021,7 hPa 0,0 l/m 7,6 km/h (2 Bft) O-NO 76 0 min 0,000 mm 0,0 UV-I 39 W/m 8,7 C 13,6 C 11,3 km/h (2 Bft) 97,22 %
08.04.2017 19:16 14,3 C 70 % 1021,7 hPa 0,0 l/m 5,8 km/h (2 Bft) O 82 0 min 0,000 mm 0,0 UV-I 36 W/m 8,9 C 14,3 C 8,0 km/h (2 Bft) 96,61 %
08.04.2017 19:18 14,2 C 70 % 1021,7 hPa 0,0 l/m 4,9 km/h (1 Bft) O 80 2 min 0,000 mm 0,0 UV-I 35 W/m 8,8 C 14,2 C 9,7 km/h (2 Bft) 95,74 %
08.04.2017 19:20 14,1 C 70 % 1021,7 hPa 0,0 l/m 6,0 km/h (2 Bft) O-NO 65 2 min 0,000 mm 0,0 UV-I 33 W/m 8,7 C 14,1 C 9,7 km/h (2 Bft) 100,00 %
08.04.2017 19:22 13,9 C 70 % 1021,7 hPa 0,0 l/m 5,7 km/h (1 Bft) O-NO 71 2 min 0,000 mm 0,0 UV-I 30 W/m 8,5 C 13,9 C 8,0 km/h (2 Bft) 95,16 %
08.04.2017 19:24 13,9 C 70 % 1021,7 hPa 0,0 l/m 7,2 km/h (2 Bft) O-NO 73 2 min 0,000 mm 0,0 UV-I 28 W/m 8,5 C 13,4 C 12,9 km/h (3 Bft) 96,00 %
08.04.2017 19:26 13,9 C 70 % 1021,7 hPa 0,0 l/m 7,2 km/h (2 Bft) O-NO 67 2 min 0,000 mm 0,0 UV-I 26 W/m 8,5 C 13,4 C 11,3 km/h (2 Bft) 92,68 %
08.04.2017 19:28 13,8 C 70 % 1021,7 hPa 0,0 l/m 4,5 km/h (1 Bft) O-NO 69 2 min 0,000 mm 0,0 UV-I 24 W/m 8,4 C 13,8 C 8,0 km/h (2 Bft) 93,10 %
08.04.2017 19:30 13,8 C 71 % 1021,7 hPa 0,0 l/m 5,5 km/h (1 Bft) O-NO 65 2 min 0,000 mm 0,0 UV-I 22 W/m 8,6 C 13,8 C 9,7 km/h (2 Bft) 95,38 %
08.04.2017 19:32 13,7 C 72 % 1021,8 hPa 0,0 l/m 5,0 km/h (1 Bft) NO 49 2 min 0,000 mm 0,0 UV-I 19 W/m 8,7 C 13,7 C 8,0 km/h (2 Bft) 95,74 %
08.04.2017 19:34 13,7 C 73 % 1021,8 hPa 0,0 l/m 6,1 km/h (2 Bft) O-NO 60 0 min 0,000 mm 0,0 UV-I 17 W/m 8,9 C 13,7 C 9,7 km/h (2 Bft) 94,00 %
08.04.2017 19:36 13,6 C 73 % 1021,8 hPa 0,0 l/m 5,9 km/h (2 Bft) NO 55 0 min 0,000 mm 0,0 UV-I 15 W/m 8,9 C 13,6 C 8,0 km/h (2 Bft) 95,74 %
08.04.2017 19:38 13,6 C 74 % 1021,8 hPa 0,0 l/m 6,9 km/h (2 Bft) NO 51 0 min 0,000 mm 0,0 UV-I 12 W/m 9,1 C 13,3 C 12,9 km/h (3 Bft) 92,11 %
08.04.2017 19:40 13,4 C 74 % 1021,8 hPa 0,0 l/m 8,8 km/h (2 Bft) O-NO 62 0 min 0,000 mm 0,0 UV-I 12 W/m 8,9 C 12,0 C 14,5 km/h (3 Bft) 96,23 %
08.04.2017 19:42 13,3 C 75 % 1021,8 hPa 0,0 l/m 8,6 km/h (2 Bft) O 80 0 min 0,000 mm 0,0 UV-I 11 W/m 9,0 C 12,0 C 12,9 km/h (3 Bft) 96,00 %
08.04.2017 19:44 13,2 C 76 % 1021,8 hPa 0,0 l/m 10,0 km/h (2 Bft) O-NO 63 0 min 0,000 mm 0,0 UV-I 10 W/m 9,1 C 11,1 C 14,5 km/h (3 Bft) 95,45 %
08.04.2017 19:46 13,0 C 77 % 1021,8 hPa 0,0 l/m 10,0 km/h (2 Bft) O 84 0 min 0,000 mm 0,0 UV-I 9 W/m 9,1 C 10,9 C 12,9 km/h (3 Bft) 98,00 %
08.04.2017 19:48 12,9 C 77 % 1021,9 hPa 0,0 l/m 7,5 km/h (2 Bft) O 83 0 min 0,000 mm 0,0 UV-I 8 W/m 9,0 C 12,2 C 11,3 km/h (2 Bft) 97,37 %
08.04.2017 19:50 12,8 C 77 % 1021,9 hPa 0,0 l/m 8,4 km/h (2 Bft) O-NO 69 0 min 0,000 mm 0,0 UV-I 7 W/m 8,9 C 11,6 C 12,9 km/h (3 Bft) 98,11 %
08.04.2017 19:52 12,7 C 78 % 1021,9 hPa 0,0 l/m 10,0 km/h (2 Bft) O-NO 60 0 min 0,000 mm 0,0 UV-I 7 W/m 9,0 C 10,6 C 14,5 km/h (3 Bft) 97,62 %
08.04.2017 19:54 12,7 C 78 % 1021,9 hPa 0,0 l/m 9,8 km/h (2 Bft) O-NO 71 0 min 0,000 mm 0,0 UV-I 6 W/m 9,0 C 10,7 C 14,5 km/h (3 Bft) 96,00 %
08.04.2017 19:56 12,6 C 78 % 1021,9 hPa 0,0 l/m 8,0 km/h (2 Bft) O 86 0 min 0,000 mm 0,0 UV-I 5 W/m 8,9 C 11,6 C 12,9 km/h (3 Bft) 100,00 %
08.04.2017 19:58 12,5 C 78 % 1021,9 hPa 0,0 l/m 8,9 km/h (2 Bft) O 82 0 min 0,000 mm 0,0 UV-I 5 W/m 8,8 C 11,0 C 12,9 km/h (3 Bft) 96,61 %
08.04.2017 20:00 12,4 C 78 % 1021,9 hPa 0,0 l/m 8,7 km/h (2 Bft) O-NO 75 0 min 0,025 mm 0,0 UV-I 4 W/m 8,7 C 11,0 C 14,5 km/h (3 Bft) 97,56 %
08.04.2017 20:02 12,4 C 78 % 1021,9 hPa 0,0 l/m 9,8 km/h (2 Bft) O-NO 78 0 min 0,000 mm 0,0 UV-I 0 W/m 8,7 C 10,4 C 14,5 km/h (3 Bft) 98,00 %
08.04.2017 20:04 12,4 C 77 % 1021,9 hPa 0,0 l/m 11,0 km/h (2 Bft) O-NO 61 0 min 0,000 mm 0,0 UV-I 0 W/m 8,5 C 9,7 C 16,1 km/h (3 Bft) 95,45 %
08.04.2017 20:06 12,4 C 78 % 1021,9 hPa 0,0 l/m 8,5 km/h (2 Bft) O-NO 78 0 min 0,000 mm 0,0 UV-I 0 W/m 8,7 C 11,1 C 12,9 km/h (3 Bft) 98,11 %
08.04.2017 20:08 12,4 C 78 % 1021,9 hPa 0,0 l/m 8,5 km/h (2 Bft) O-NO 77 0 min 0,000 mm 0,0 UV-I 0 W/m 8,7 C 11,1 C 12,9 km/h (3 Bft) 95,12 %
08.04.2017 20:10 12,4 C 78 % 1021,9 hPa 0,0 l/m 9,6 km/h (2 Bft) O-NO 59 0 min 0,000 mm 0,0 UV-I 0 W/m 8,7 C 10,5 C 12,9 km/h (3 Bft) 98,11 %
08.04.2017 20:12 12,3 C 78 % 1022,0 hPa 0,0 l/m 7,7 km/h (2 Bft) O-NO 70 0 min 0,000 mm 0,0 UV-I 0 W/m 8,6 C 11,5 C 12,9 km/h (3 Bft) 97,62 %
08.04.2017 20:14 12,2 C 78 % 1022,0 hPa 0,0 l/m 7,9 km/h (2 Bft) O 88 0 min 0,000 mm 0,0 UV-I 0 W/m 8,5 C 11,2 C 12,9 km/h (3 Bft) 97,73 %
08.04.2017 20:16 12,2 C 78 % 1022,0 hPa 0,0 l/m 6,7 km/h (2 Bft) SO 136 0 min 0,000 mm 0,0 UV-I 0 W/m 8,5 C 12,0 C 11,3 km/h (2 Bft) 96,23 %
08.04.2017 20:18 12,2 C 77 % 1022,1 hPa 0,0 l/m 5,6 km/h (1 Bft) O 96 0 min 0,000 mm 0,0 UV-I 0 W/m 8,3 C 12,2 C 11,3 km/h (2 Bft) 97,37 %
08.04.2017 20:20 12,1 C 77 % 1022,1 hPa 0,0 l/m 6,9 km/h (2 Bft) O 96 0 min 0,000 mm 0,0 UV-I 0 W/m 8,2 C 11,8 C 11,3 km/h (2 Bft) 94,34 %
08.04.2017 20:22 12,1 C 77 % 1022,1 hPa 0,0 l/m 6,2 km/h (2 Bft) O 96 0 min 0,000 mm 0,0 UV-I 0 W/m 8,2 C 12,1 C 12,9 km/h (3 Bft) 97,56 %
08.04.2017 20:24 12,0 C 77 % 1022,1 hPa 0,0 l/m 6,7 km/h (2 Bft) O-SO 106 0 min 0,000 mm 0,0 UV-I 0 W/m 8,1 C 11,8 C 12,9 km/h (3 Bft) 98,11 %
08.04.2017 20:26 11,9 C 77 % 1022,2 hPa 0,0 l/m 6,7 km/h (2 Bft) O-NO 70 0 min 0,000 mm 0,0 UV-I 0 W/m 8,0 C 11,7 C 11,3 km/h (2 Bft) 94,74 %
08.04.2017 20:28 11,9 C 78 % 1022,2 hPa 0,0 l/m 6,0 km/h (2 Bft) O 99 0 min 0,000 mm 0,0 UV-I 0 W/m 8,2 C 11,9 C 9,7 km/h (2 Bft) 98,21 %
08.04.2017 20:30 11,9 C 78 % 1022,2 hPa 0,0 l/m 6,7 km/h (2 Bft) O-SO 107 0 min 0,000 mm 0,0 UV-I 0 W/m 8,2 C 11,7 C 11,3 km/h (2 Bft) 100,00 %
08.04.2017 20:32 11,9 C 78 % 1022,3 hPa 0,0 l/m 5,2 km/h (1 Bft) O-SO 106 0 min 0,000 mm 0,0 UV-I 0 W/m 8,2 C 11,9 C 8,0 km/h (2 Bft) 98,51 %
08.04.2017 20:34 11,9 C 78 % 1022,3 hPa 0,0 l/m 7,0 km/h (2 Bft) O 93 0 min 0,000 mm 0,0 UV-I 0 W/m 8,2 C 11,5 C 12,9 km/h (3 Bft) 100,00 %
08.04.2017 20:36 11,9 C 78 % 1022,3 hPa 0,0 l/m 5,4 km/h (1 Bft) O 92 0 min 0,000 mm 0,0 UV-I 0 W/m 8,2 C 11,9 C 9,7 km/h (2 Bft) 100,00 %
08.04.2017 20:38 11,8 C 78 % 1022,4 hPa 0,0 l/m 6,4 km/h (2 Bft) O 92 0 min 0,000 mm 0,0 UV-I 0 W/m 8,1 C 11,8 C 11,3 km/h (2 Bft) 100,00 %
08.04.2017 20:40 11,8 C 77 % 1022,3 hPa 0,0 l/m 6,6 km/h (2 Bft) O 88 0 min 0,000 mm 0,0 UV-I 0 W/m 7,9 C 11,7 C 12,9 km/h (3 Bft) 100,00 %
08.04.2017 20:42 11,9 C 77 % 1022,4 hPa 0,0 l/m 7,1 km/h (2 Bft) O 94 0 min 0,000 mm 0,0 UV-I 0 W/m 8,0 C 11,4 C 11,3 km/h (2 Bft) 97,73 %
08.04.2017 20:44 11,8 C 77 % 1022,3 hPa 0,0 l/m 6,1 km/h (2 Bft) O 92 0 min 0,000 mm 0,0 UV-I 0 W/m 7,9 C 11,8 C 9,7 km/h (2 Bft) 98,00 %
08.04.2017 20:46 11,8 C 77 % 1022,4 hPa 0,0 l/m 7,0 km/h (2 Bft) O 98 0 min 0,000 mm 0,0 UV-I 0 W/m 7,9 C 11,4 C 11,3 km/h (2 Bft) 98,11 %
08.04.2017 20:48 11,8 C 77 % 1022,4 hPa 0,0 l/m 6,4 km/h (2 Bft) O-SO 105 0 min 0,000 mm 0,0 UV-I 0 W/m 7,9 C 11,8 C 11,3 km/h (2 Bft) 100,00 %
08.04.2017 20:50 11,8 C 77 % 1022,4 hPa 0,0 l/m 7,8 km/h (2 Bft) O-SO 111 0 min 0,000 mm 0,0 UV-I 0 W/m 7,9 C 10,9 C 11,3 km/h (2 Bft) 100,00 %
08.04.2017 20:52 11,8 C 77 % 1022,4 hPa 0,0 l/m 8,7 km/h (2 Bft) O 92 0 min 0,000 mm 0,0 UV-I 0 W/m 7,9 C 10,3 C 12,9 km/h (3 Bft) 97,73 %
08.04.2017 20:54 11,8 C 77 % 1022,4 hPa 0,0 l/m 7,7 km/h (2 Bft) O 97 0 min 0,000 mm 0,0 UV-I 0 W/m 7,9 C 10,9 C 12,9 km/h (3 Bft) 100,00 %
08.04.2017 20:56 11,8 C 77 % 1022,4 hPa 0,0 l/m 6,0 km/h (2 Bft) O 94 0 min 0,000 mm 0,0 UV-I 0 W/m 7,9 C 11,8 C 11,3 km/h (2 Bft) 100,00 %
08.04.2017 20:58 11,7 C 77 % 1022,5 hPa 0,0 l/m 7,2 km/h (2 Bft) O 96 0 min 0,000 mm 0,0 UV-I 0 W/m 7,8 C 11,2 C 11,3 km/h (2 Bft) 98,00 %
08.04.2017 21:00 11,7 C 77 % 1022,4 hPa 0,0 l/m 4,7 km/h (1 Bft) O 88 0 min 0,000 mm 0,0 UV-I 0 W/m 7,8 C 11,7 C 9,7 km/h (2 Bft) 100,00 %
08.04.2017 21:02 11,6 C 77 % 1022,5 hPa 0,0 l/m 4,1 km/h (1 Bft) O 96 0 min 0,026 mm 0,0 UV-I 0 W/m 7,7 C 11,6 C 6,4 km/h (2 Bft) 100,00 %
08.04.2017 21:04 11,6 C 77 % 1022,5 hPa 0,0 l/m 5,7 km/h (1 Bft) O 80 0 min 0,000 mm 0,0 UV-I 0 W/m 7,7 C 11,6 C 11,3 km/h (2 Bft) 100,00 %
08.04.2017 21:06 11,5 C 78 % 1022,5 hPa 0,0 l/m 5,2 km/h (1 Bft) O 90 0 min 0,000 mm 0,0 UV-I 0 W/m 7,8 C 11,5 C 6,4 km/h (2 Bft) 100,00 %
08.04.2017 21:08 11,4 C 78 % 1022,5 hPa 0,0 l/m 6,8 km/h (2 Bft) O 90 0 min 0,000 mm 0,0 UV-I 0 W/m 7,7 C 11,1 C 11,3 km/h (2 Bft) 98,51 %
08.04.2017 21:10 11,4 C 78 % 1022,5 hPa 0,0 l/m 6,6 km/h (2 Bft) O 90 0 min 0,000 mm 0,0 UV-I 0 W/m 7,7 C 11,3 C 11,3 km/h (2 Bft) 100,00 %
08.04.2017 21:12 11,3 C 78 % 1022,5 hPa 0,0 l/m 5,5 km/h (1 Bft) O-SO 104 0 min 0,000 mm 0,0 UV-I 0 W/m 7,6 C 11,3 C 9,7 km/h (2 Bft) 100,00 %
08.04.2017 21:14 11,3 C 78 % 1022,5 hPa 0,0 l/m 4,7 km/h (1 Bft) O 99 0 min 0,000 mm 0,0 UV-I 0 W/m 7,6 C 11,3 C 6,4 km/h (2 Bft) 100,00 %
08.04.2017 21:16 11,2 C 79 % 1022,5 hPa 0,0 l/m 4,3 km/h (1 Bft) O 84 0 min 0,000 mm 0,0 UV-I 0 W/m 7,7 C 11,2 C 6,4 km/h (2 Bft) 100,00 %
08.04.2017 21:22 11,3 C 79 % 1022,5 hPa 0,0 l/m 7,8 km/h (2 Bft) O-NO 74 0 min 0,000 mm 0,0 UV-I 0 W/m 7,8 C 10,3 C 11,3 km/h (2 Bft) 97,50 %
08.04.2017 21:24 11,3 C 78 % 1022,5 hPa 0,0 l/m 8,3 km/h (2 Bft) O 95 0 min 0,000 mm 0,0 UV-I 0 W/m 7,6 C 10,0 C 14,5 km/h (3 Bft) 100,00 %
08.04.2017 21:26 11,4 C 78 % 1022,5 hPa 0,0 l/m 6,4 km/h (2 Bft) O-NO 74 0 min 0,000 mm 0,0 UV-I 0 W/m 7,7 C 11,4 C 11,3 km/h (2 Bft) 94,34 %
08.04.2017 21:28 11,5 C 78 % 1022,5 hPa 0,0 l/m 7,3 km/h (2 Bft) O 87 0 min 0,000 mm 0,0 UV-I 0 W/m 7,8 C 10,9 C 12,9 km/h (3 Bft) 98,21 %
08.04.2017 21:30 11,5 C 77 % 1022,5 hPa 0,0 l/m 6,0 km/h (2 Bft) O-NO 76 0 min 0,000 mm 0,0 UV-I 0 W/m 7,6 C 11,5 C 8,0 km/h (2 Bft) 95,74 %
08.04.2017 21:32 11,6 C 77 % 1022,5 hPa 0,0 l/m 7,5 km/h (2 Bft) O-NO 76 0 min 0,000 mm 0,0 UV-I 0 W/m 7,7 C 10,9 C 11,3 km/h (2 Bft) 97,37 %
08.04.2017 21:34 11,5 C 77 % 1022,6 hPa 0,0 l/m 6,6 km/h (2 Bft) O 82 0 min 0,000 mm 0,0 UV-I 0 W/m 7,6 C 11,4 C 9,7 km/h (2 Bft) 94,64 %
08.04.2017 21:36 11,4 C 77 % 1022,5 hPa 0,0 l/m 5,7 km/h (1 Bft) O-NO 70 0 min 0,000 mm 0,0 UV-I 0 W/m 7,5 C 11,4 C 8,0 km/h (2 Bft) 95,12 %
08.04.2017 21:38 11,4 C 78 % 1022,6 hPa 0,0 l/m 6,3 km/h (2 Bft) O-NO 59 0 min 0,000 mm 0,0 UV-I 0 W/m 7,7 C 11,4 C 8,0 km/h (2 Bft) 97,73 %
08.04.2017 21:40 11,4 C 78 % 1022,7 hPa 0,0 l/m 7,3 km/h (2 Bft) O-NO 76 0 min 0,000 mm 0,0 UV-I 0 W/m 7,7 C 10,8 C 9,7 km/h (2 Bft) 92,45 %
08.04.2017 21:42 11,3 C 78 % 1022,7 hPa 0,0 l/m 6,6 km/h (2 Bft) O-NO 65 0 min 0,000 mm 0,0 UV-I 0 W/m 7,6 C 11,2 C 8,0 km/h (2 Bft) 97,56 %
08.04.2017 21:44 11,2 C 79 % 1022,7 hPa 0,0 l/m 7,9 km/h (2 Bft) O-NO 69 0 min 0,000 mm 0,0 UV-I 0 W/m 7,7 C 10,2 C 12,9 km/h (3 Bft) 97,87 %
08.04.2017 21:46 11,1 C 79 % 1022,7 hPa 0,0 l/m 6,7 km/h (2 Bft) O-NO 68 0 min 0,000 mm 0,0 UV-I 0 W/m 7,6 C 10,9 C 9,7 km/h (2 Bft) 98,04 %
08.04.2017 21:48 11,1 C 79 % 1022,8 hPa 0,0 l/m 5,4 km/h (1 Bft) O-NO 68 0 min 0,000 mm 0,0 UV-I 0 W/m 7,6 C 11,1 C 8,0 km/h (2 Bft) 98,00 %
08.04.2017 21:50 10,9 C 80 % 1022,7 hPa 0,0 l/m 5,4 km/h (1 Bft) O-NO 75 0 min 0,000 mm 0,0 UV-I 0 W/m 7,6 C 10,9 C 6,4 km/h (2 Bft) 97,44 %
08.04.2017 21:52 10,9 C 80 % 1022,7 hPa 0,0 l/m 6,4 km/h (2 Bft) O 85 0 min 0,000 mm 0,0 UV-I 0 W/m 7,6 C 10,9 C 11,3 km/h (2 Bft) 97,56 %
08.04.2017 21:54 10,8 C 80 % 1022,7 hPa 0,0 l/m 8,1 km/h (2 Bft) O-NO 78 0 min 0,000 mm 0,0 UV-I 0 W/m 7,5 C 9,6 C 12,9 km/h (3 Bft) 98,21 %
08.04.2017 21:56 10,8 C 80 % 1022,7 hPa 0,0 l/m 6,3 km/h (2 Bft) O 81 0 min 0,000 mm 0,0 UV-I 0 W/m 7,5 C 10,8 C 9,7 km/h (2 Bft) 97,73 %
08.04.2017 21:58 10,8 C 80 % 1022,8 hPa 0,0 l/m 6,6 km/h (2 Bft) O-NO 69 0 min 0,000 mm 0,0 UV-I 0 W/m 7,5 C 10,7 C 11,3 km/h (2 Bft) 98,21 %
08.04.2017 22:00 10,8 C 80 % 1022,8 hPa 0,0 l/m 7,5 km/h (2 Bft) O-NO 78 0 min 0,000 mm 0,0 UV-I 0 W/m 7,5 C 10,0 C 11,3 km/h (2 Bft) 97,37 %
08.04.2017 22:02 10,8 C 80 % 1022,7 hPa 0,0 l/m 8,7 km/h (2 Bft) O 85 0 min 0,025 mm 0,0 UV-I 0 W/m 7,5 C 9,2 C 11,3 km/h (2 Bft) 100,00 %
08.04.2017 22:04 10,8 C 81 % 1022,8 hPa 0,0 l/m 7,5 km/h (2 Bft) O-NO 78 0 min 0,000 mm 0,0 UV-I 0 W/m 7,7 C 10,0 C 12,9 km/h (3 Bft) 100,00 %
08.04.2017 22:06 10,8 C 81 % 1022,8 hPa 0,0 l/m 7,5 km/h (2 Bft) O 85 0 min 0,000 mm 0,0 UV-I 0 W/m 7,7 C 10,0 C 12,9 km/h (3 Bft) 100,00 %
08.04.2017 22:08 10,7 C 81 % 1022,8 hPa 0,0 l/m 7,3 km/h (2 Bft) O 86 0 min 0,000 mm 0,0 UV-I 0 W/m 7,6 C 10,1 C 12,9 km/h (3 Bft) 100,00 %
08.04.2017 22:10 10,7 C 81 % 1022,7 hPa 0,0 l/m 8,0 km/h (2 Bft) O-NO 72 0 min 0,000 mm 0,0 UV-I 0 W/m 7,6 C 9,6 C 11,3 km/h (2 Bft) 100,00 %
08.04.2017 22:12 10,7 C 81 % 1022,7 hPa 0,0 l/m 6,8 km/h (2 Bft) O 90 0 min 0,000 mm 0,0 UV-I 0 W/m 7,6 C 10,4 C 11,3 km/h (2 Bft) 100,00 %
08.04.2017 22:14 10,6 C 81 % 1022,8 hPa 0,0 l/m 10,7 km/h (2 Bft) O 88 0 min 0,000 mm 0,0 UV-I 0 W/m 7,5 C 7,9 C 12,9 km/h (3 Bft) 100,00 %
08.04.2017 22:16 10,7 C 81 % 1022,8 hPa 0,0 l/m 7,6 km/h (2 Bft) O-NO 74 0 min 0,000 mm 0,0 UV-I 0 W/m 7,6 C 9,9 C 11,3 km/h (2 Bft) 100,00 %
08.04.2017 22:18 10,7 C 81 % 1022,8 hPa 0,0 l/m 8,4 km/h (2 Bft) O-NO 68 0 min 0,000 mm 0,0 UV-I 0 W/m 7,6 C 9,3 C 12,9 km/h (3 Bft) 100,00 %
08.04.2017 22:20 10,7 C 81 % 1022,8 hPa 0,0 l/m 8,9 km/h (2 Bft) O-NO 76 0 min 0,000 mm 0,0 UV-I 0 W/m 7,6 C 9,0 C 12,9 km/h (3 Bft) 100,00 %
08.04.2017 22:22 10,7 C 81 % 1022,9 hPa 0,0 l/m 8,9 km/h (2 Bft) O-NO 67 0 min 0,000 mm 0,0 UV-I 0 W/m 7,6 C 9,0 C 12,9 km/h (3 Bft) 100,00 %
08.04.2017 22:24 10,6 C 81 % 1022,9 hPa 0,0 l/m 8,7 km/h (2 Bft) O 82 0 min 0,000 mm 0,0 UV-I 0 W/m 7,5 C 9,0 C 12,9 km/h (3 Bft) 100,00 %
08.04.2017 22:26 10,6 C 81 % 1022,9 hPa 0,0 l/m 10,2 km/h (2 Bft) O-NO 69 0 min 0,000 mm 0,0 UV-I 0 W/m 7,5 C 8,1 C 14,5 km/h (3 Bft) 100,00 %
08.04.2017 22:28 10,6 C 82 % 1022,9 hPa 0,0 l/m 9,3 km/h (2 Bft) O-NO 68 0 min 0,000 mm 0,0 UV-I 0 W/m 7,7 C 8,7 C 12,9 km/h (3 Bft) 100,00 %
08.04.2017 22:30 10,6 C 82 % 1022,9 hPa 0,0 l/m 8,2 km/h (2 Bft) O 80 0 min 0,000 mm 0,0 UV-I 0 W/m 7,7 C 9,4 C 11,3 km/h (2 Bft) 100,00 %
08.04.2017 22:32 10,5 C 82 % 1022,9 hPa 0,0 l/m 7,9 km/h (2 Bft) O 82 0 min 0,000 mm 0,0 UV-I 0 W/m 7,6 C 9,4 C 11,3 km/h (2 Bft) 100,00 %
08.04.2017 22:34 10,4 C 82 % 1022,9 hPa 0,0 l/m 8,6 km/h (2 Bft) O 79 0 min 0,000 mm 0,0 UV-I 0 W/m 7,5 C 8,9 C 12,9 km/h (3 Bft) 100,00 %
08.04.2017 22:36 10,4 C 82 % 1022,9 hPa 0,0 l/m 9,1 km/h (2 Bft) O-NO 67 0 min 0,000 mm 0,0 UV-I 0 W/m 7,5 C 8,6 C 12,9 km/h (3 Bft) 97,44 %
08.04.2017 22:38 10,4 C 82 % 1022,9 hPa 0,0 l/m 7,3 km/h (2 Bft) O 80 0 min 0,000 mm 0,0 UV-I 0 W/m 7,5 C 9,8 C 11,3 km/h (2 Bft) 100,00 %
08.04.2017 22:40 10,4 C 82 % 1022,9 hPa 0,0 l/m 6,8 km/h (2 Bft) O-NO 68 0 min 0,000 mm 0,0 UV-I 0 W/m 7,5 C 10,1 C 9,7 km/h (2 Bft) 100,00 %
08.04.2017 22:42 10,4 C 82 % 1022,9 hPa 0,0 l/m 6,5 km/h (2 Bft) O-NO 67 0 min 0,000 mm 0,0 UV-I 0 W/m 7,5 C 10,4 C 8,0 km/h (2 Bft) 100,00 %
08.04.2017 22:44 10,3 C 83 % 1022,9 hPa 0,0 l/m 6,5 km/h (2 Bft) O-NO 57 0 min 0,000 mm 0,0 UV-I 0 W/m 7,5 C 10,3 C 8,0 km/h (2 Bft) 100,00 %
08.04.2017 22:46 10,3 C 83 % 1022,9 hPa 0,0 l/m 7,5 km/h (2 Bft) NO 52 0 min 0,000 mm 0,0 UV-I 0 W/m 7,5 C 9,5 C 12,9 km/h (3 Bft) 100,00 %
08.04.2017 22:48 10,2 C 83 % 1022,9 hPa 0,0 l/m 8,2 km/h (2 Bft) O-NO 67 0 min 0,000 mm 0,0 UV-I 0 W/m 7,4 C 8,9 C 11,3 km/h (2 Bft) 100,00 %
08.04.2017 22:50 10,2 C 83 % 1022,8 hPa 0,0 l/m 8,3 km/h (2 Bft) O-NO 75 0 min 0,000 mm 0,0 UV-I 0 W/m 7,4 C 8,9 C 11,3 km/h (2 Bft) 98,00 %
08.04.2017 22:52 10,1 C 84 % 1022,9 hPa 0,0 l/m 8,7 km/h (2 Bft) O-NO 75 0 min 0,000 mm 0,0 UV-I 0 W/m 7,5 C 8,5 C 12,9 km/h (3 Bft) 96,88 %
08.04.2017 22:54 10,1 C 84 % 1022,9 hPa 0,0 l/m 8,5 km/h (2 Bft) O-NO 64 0 min 0,000 mm 0,0 UV-I 0 W/m 7,5 C 8,6 C 12,9 km/h (3 Bft) 100,00 %
08.04.2017 22:56 10,1 C 84 % 1022,9 hPa 0,0 l/m 7,3 km/h (2 Bft) O-NO 71 0 min 0,000 mm 0,0 UV-I 0 W/m 7,5 C 9,4 C 11,3 km/h (2 Bft) 100,00 %
08.04.2017 22:58 10,0 C 84 % 1022,9 hPa 0,0 l/m 7,5 km/h (2 Bft) O-NO 73 0 min 0,000 mm 0,0 UV-I 0 W/m 7,4 C 9,2 C 9,7 km/h (2 Bft) 100,00 %
08.04.2017 23:00 9,9 C 84 % 1022,8 hPa 0,0 l/m 7,4 km/h (2 Bft) O-NO 74 0 min 0,000 mm 0,0 UV-I 0 W/m 7,3 C 9,2 C 11,3 km/h (2 Bft) 100,00 %
08.04.2017 23:02 9,9 C 85 % 1022,9 hPa 0,0 l/m 7,8 km/h (2 Bft) O-NO 67 0 min 0,026 mm 0,0 UV-I 0 W/m 7,5 C 8,9 C 11,3 km/h (2 Bft) 100,00 %
08.04.2017 23:04 9,9 C 85 % 1022,8 hPa 0,0 l/m 8,1 km/h (2 Bft) O-NO 67 0 min 0,000 mm 0,0 UV-I 0 W/m 7,5 C 8,7 C 11,3 km/h (2 Bft) 100,00 %
08.04.2017 23:06 9,8 C 85 % 1022,9 hPa 0,0 l/m 7,9 km/h (2 Bft) O-NO 74 0 min 0,000 mm 0,0 UV-I 0 W/m 7,4 C 8,7 C 12,9 km/h (3 Bft) 96,00 %
08.04.2017 23:08 9,8 C 85 % 1022,8 hPa 0,0 l/m 6,8 km/h (2 Bft) O 80 0 min 0,000 mm 0,0 UV-I 0 W/m 7,4 C 9,5 C 9,7 km/h (2 Bft) 98,00 %
08.04.2017 23:10 9,8 C 85 % 1022,9 hPa 0,0 l/m 6,5 km/h (2 Bft) O-NO 73 0 min 0,000 mm 0,0 UV-I 0 W/m 7,4 C 9,8 C 9,7 km/h (2 Bft) 100,00 %
08.04.2017 23:12 9,8 C 85 % 1022,8 hPa 0,0 l/m 7,5 km/h (2 Bft) O-NO 73 0 min 0,000 mm 0,0 UV-I 0 W/m 7,4 C 9,0 C 12,9 km/h (3 Bft) 100,00 %
08.04.2017 23:14 9,7 C 85 % 1022,8 hPa 0,0 l/m 7,7 km/h (2 Bft) O-NO 75 0 min 0,000 mm 0,0 UV-I 0 W/m 7,3 C 8,7 C 11,3 km/h (2 Bft) 100,00 %
08.04.2017 23:16 9,7 C 86 % 1022,8 hPa 0,0 l/m 6,7 km/h (2 Bft) O-NO 76 0 min 0,000 mm 0,0 UV-I 0 W/m 7,5 C 9,5 C 8,0 km/h (2 Bft) 100,00 %
08.04.2017 23:18 9,7 C 86 % 1022,8 hPa 0,0 l/m 7,8 km/h (2 Bft) O-NO 73 0 min 0,000 mm 0,0 UV-I 0 W/m 7,5 C 8,7 C 12,9 km/h (3 Bft) 100,00 %
08.04.2017 23:20 9,7 C 86 % 1022,8 hPa 0,0 l/m 7,1 km/h (2 Bft) O-NO 70 0 min 0,000 mm 0,0 UV-I 0 W/m 7,5 C 9,2 C 9,7 km/h (2 Bft) 100,00 %
08.04.2017 23:22 9,6 C 86 % 1022,9 hPa 0,0 l/m 7,4 km/h (2 Bft) O-NO 72 0 min 0,000 mm 0,0 UV-I 0 W/m 7,4 C 8,9 C 11,3 km/h (2 Bft) 100,00 %
08.04.2017 23:24 9,6 C 86 % 1022,9 hPa 0,0 l/m 6,7 km/h (2 Bft) O-NO 70 0 min 0,000 mm 0,0 UV-I 0 W/m 7,4 C 9,4 C 11,3 km/h (2 Bft) 98,00 %
08.04.2017 23:26 9,6 C 86 % 1022,8 hPa 0,0 l/m 6,7 km/h (2 Bft) O-NO 58 0 min 0,000 mm 0,0 UV-I 0 W/m 7,4 C 9,4 C 8,0 km/h (2 Bft) 94,00 %
08.04.2017 23:28 9,6 C 86 % 1022,8 hPa 0,0 l/m 6,3 km/h (2 Bft) O-NO 67 0 min 0,000 mm 0,0 UV-I 0 W/m 7,4 C 9,6 C 8,0 km/h (2 Bft) 95,74 %
08.04.2017 23:30 9,5 C 86 % 1022,8 hPa 0,0 l/m 6,3 km/h (2 Bft) O-NO 69 0 min 0,000 mm 0,0 UV-I 0 W/m 7,3 C 9,5 C 8,0 km/h (2 Bft) 94,74 %
08.04.2017 23:32 9,5 C 86 % 1022,8 hPa 0,0 l/m 6,7 km/h (2 Bft) O-NO 76 0 min 0,000 mm 0,0 UV-I 0 W/m 7,3 C 9,3 C 8,0 km/h (2 Bft) 96,43 %
08.04.2017 23:34 9,4 C 87 % 1022,9 hPa 0,0 l/m 6,8 km/h (2 Bft) O-NO 67 0 min 0,000 mm 0,0 UV-I 0 W/m 7,3 C 9,1 C 9,7 km/h (2 Bft) 95,45 %
08.04.2017 23:36 9,4 C 87 % 1022,8 hPa 0,0 l/m 6,7 km/h (2 Bft) O-NO 63 0 min 0,000 mm 0,0 UV-I 0 W/m 7,3 C 9,2 C 9,7 km/h (2 Bft) 94,74 %
08.04.2017 23:38 9,4 C 87 % 1022,9 hPa 0,0 l/m 5,6 km/h (1 Bft) O-NO 58 0 min 0,000 mm 0,0 UV-I 0 W/m 7,3 C 9,4 C 8,0 km/h (2 Bft) 94,64 %
08.04.2017 23:40 9,3 C 87 % 1022,9 hPa 0,0 l/m 5,7 km/h (1 Bft) O-NO 71 0 min 0,000 mm 0,0 UV-I 0 W/m 7,2 C 9,3 C 9,7 km/h (2 Bft) 96,00 %
08.04.2017 23:42 9,3 C 87 % 1023,0 hPa 0,0 l/m 7,1 km/h (2 Bft) O-NO 69 0 min 0,000 mm 0,0 UV-I 0 W/m 7,2 C 8,8 C 9,7 km/h (2 Bft) 94,74 %
08.04.2017 23:44 9,3 C 87 % 1022,9 hPa 0,0 l/m 6,2 km/h (2 Bft) O-NO 66 0 min 0,000 mm 0,0 UV-I 0 W/m 7,2 C 9,3 C 8,0 km/h (2 Bft) 96,00 %
08.04.2017 23:46 9,3 C 87 % 1023,0 hPa 0,0 l/m 7,0 km/h (2 Bft) NO 55 0 min 0,000 mm 0,0 UV-I 0 W/m 7,2 C 8,9 C 9,7 km/h (2 Bft) 94,34 %
08.04.2017 23:48 9,2 C 87 % 1023,0 hPa 0,0 l/m 7,2 km/h (2 Bft) O-NO 64 0 min 0,000 mm 0,0 UV-I 0 W/m 7,2 C 8,6 C 9,7 km/h (2 Bft) 95,45 %
08.04.2017 23:50 9,2 C 88 % 1023,0 hPa 0,0 l/m 7,1 km/h (2 Bft) O-NO 65 0 min 0,000 mm 0,0 UV-I 0 W/m 7,3 C 8,7 C 9,7 km/h (2 Bft) 94,87 %
08.04.2017 23:52 9,2 C 87 % 1023,0 hPa 0,0 l/m 6,8 km/h (2 Bft) O-NO 63 0 min 0,000 mm 0,0 UV-I 0 W/m 7,2 C 8,9 C 9,7 km/h (2 Bft) 94,00 %
08.04.2017 23:54 9,1 C 88 % 1023,0 hPa 0,0 l/m 7,8 km/h (2 Bft) O-NO 65 0 min 0,000 mm 0,0 UV-I 0 W/m 7,2 C 8,1 C 12,9 km/h (3 Bft) 94,34 %
08.04.2017 23:56 9,1 C 88 % 1023,0 hPa 0,0 l/m 7,2 km/h (2 Bft) O-NO 62 0 min 0,000 mm 0,0 UV-I 0 W/m 7,2 C 8,5 C 9,7 km/h (2 Bft) 94,74 %
08.04.2017 23:58 9,0 C 88 % 1023,0 hPa 0,0 l/m 6,6 km/h (2 Bft) O-NO 64 0 min 0,000 mm 0,0 UV-I 0 W/m 7,1 C 8,9 C 8,0 km/h (2 Bft) 95,74 %
_ Min-Zeit 04:32 16:08 00:00 - 18:28 - - - - - - 04:36 04:40 18:30 00:02
Minimum _ 7,9 C 57 % 1021,7 hPa - 0,0 km/h (0 Bft) - - - - - - 5,7 C 2,5 C 0,0 km/h (0 Bft) 11,11 %
_ Max-Zeit 17:10 03:06 10:36 00:00 02:20 - - 10:50 14:00 13:26 11:26 13:42 17:10 02:46 00:00
Maximum _ 16,6 C 88 % 1024,5 hPa 0,0 l/m 16,2 km/h
W-NW (3 Bft)
- - 2 min 0,406 mm 4,2 UV-I 929 W/m 10,1 C 16,6 C 24,1 km/h
W-SW (4 Bft)
100,00 %
Durchschnitt _ 11,0 C 78 % 1022,8 hPa #0,0 l/m 8,0 km/h (2 Bft) W-SW - #7:26 h #2,642 mm 2,2 UV-I 319 W/m 7,2 C 9,4 C 12,6 km/h (3 Bft) 97,37 %